Wetterdaten: Samstag, 02.10.2021
Datum Zeit Temp. Aussen Temp. o. S. Temp +5cm Feuchte Auss Luftdruck Regen Sonnenschein Regendauer Solar Windben Empfang
02.10.2021 00:00 13,3 C 12,2 C 10,0 C 92 % 1014,0 hPa 0,0 l/m 0 min 0 min 0 W/m 16,1 km/h (3 Bft) 97,83 %
02.10.2021 00:02 13,3 C 12,2 C 10,0 C 92 % 1013,9 hPa 0,0 l/m 0 min 0 min 0 W/m 16,1 km/h (3 Bft) 100,00 %
02.10.2021 00:04 13,3 C 12,2 C 10,0 C 92 % 1013,9 hPa 0,0 l/m 0 min 0 min 0 W/m 12,9 km/h (3 Bft) 95,74 %
02.10.2021 00:07 13,2 C 12,2 C 10,0 C 92 % 1013,9 hPa 0,2 l/m 0 min 0 min 0 W/m 16,1 km/h (3 Bft) 100,00 %
02.10.2021 00:08 13,2 C 12,2 C 10,0 C 93 % 1013,9 hPa 0,0 l/m 0 min 0 min 0 W/m 12,9 km/h (3 Bft) 95,83 %
02.10.2021 00:10 13,1 C 12,2 C 10,6 C 93 % 1013,9 hPa 0,0 l/m 0 min 0 min 0 W/m 12,9 km/h (3 Bft) 95,65 %
02.10.2021 00:12 13,1 C 12,2 C 10,6 C 93 % 1013,9 hPa 0,0 l/m 0 min 0 min 0 W/m 16,1 km/h (3 Bft) 94,74 %
02.10.2021 00:14 13,1 C 12,2 C 10,6 C 93 % 1013,9 hPa 0,0 l/m 0 min 0 min 0 W/m 16,1 km/h (3 Bft) 95,74 %
02.10.2021 00:16 13,0 C 12,2 C 10,6 C 93 % 1013,9 hPa 0,0 l/m 0 min 0 min 0 W/m 16,1 km/h (3 Bft) 95,74 %
02.10.2021 00:18 13,0 C 11,7 C 10,6 C 93 % 1013,9 hPa 0,0 l/m 0 min 0 min 0 W/m 16,1 km/h (3 Bft) 93,62 %
02.10.2021 00:20 13,0 C 11,7 C 10,6 C 93 % 1013,8 hPa 0,2 l/m 0 min 0 min 0 W/m 12,9 km/h (3 Bft) 94,00 %
02.10.2021 00:22 13,0 C 11,7 C 10,6 C 94 % 1013,8 hPa 0,0 l/m 0 min 2 min 0 W/m 16,1 km/h (3 Bft) 95,74 %
02.10.2021 00:24 12,9 C 11,7 C 10,0 C 94 % 1013,8 hPa 0,0 l/m 0 min 2 min 0 W/m 12,9 km/h (3 Bft) 95,65 %
02.10.2021 00:26 12,9 C 11,7 C 10,6 C 94 % 1013,7 hPa 0,0 l/m 0 min 2 min 0 W/m 6,4 km/h (2 Bft) 93,18 %
02.10.2021 00:28 12,9 C 11,7 C 10,6 C 94 % 1013,7 hPa 0,0 l/m 0 min 0 min 0 W/m 12,9 km/h (3 Bft) 93,62 %
02.10.2021 00:30 12,9 C 11,7 C 10,6 C 94 % 1013,7 hPa 0,0 l/m 0 min 2 min 0 W/m 12,9 km/h (3 Bft) 94,00 %
02.10.2021 00:32 12,9 C 11,7 C 10,6 C 94 % 1013,7 hPa 0,0 l/m 0 min 0 min 0 W/m 12,9 km/h (3 Bft) 91,49 %
02.10.2021 00:34 12,9 C 12,2 C 10,6 C 94 % 1013,7 hPa 0,0 l/m 0 min 0 min 0 W/m 6,4 km/h (2 Bft) 95,65 %
02.10.2021 00:36 12,9 C 11,7 C 10,6 C 94 % 1013,7 hPa 0,0 l/m 0 min 2 min 0 W/m 3,2 km/h (1 Bft) 97,87 %
02.10.2021 00:38 12,9 C 12,2 C 10,6 C 94 % 1013,7 hPa 0,0 l/m 0 min 0 min 0 W/m 12,9 km/h (3 Bft) 97,87 %
02.10.2021 00:40 12,9 C 12,2 C 10,6 C 94 % 1013,7 hPa 0,0 l/m 0 min 2 min 0 W/m 6,4 km/h (2 Bft) 97,73 %
02.10.2021 00:42 12,9 C 12,2 C 10,6 C 94 % 1013,7 hPa 0,0 l/m 0 min 2 min 0 W/m 12,9 km/h (3 Bft) 96,00 %
02.10.2021 00:44 12,9 C 12,2 C 10,6 C 94 % 1013,7 hPa 0,0 l/m 0 min 2 min 0 W/m 3,2 km/h (1 Bft) 97,87 %
02.10.2021 00:46 12,9 C 12,2 C 10,6 C 94 % 1013,7 hPa 0,0 l/m 0 min 2 min 0 W/m 3,2 km/h (1 Bft) 98,08 %
02.10.2021 00:48 12,9 C 12,2 C 10,6 C 95 % 1013,7 hPa 0,0 l/m 0 min 0 min 0 W/m 6,4 km/h (2 Bft) 95,74 %
02.10.2021 00:50 12,9 C 12,2 C 10,6 C 95 % 1013,8 hPa 0,0 l/m 0 min 0 min 0 W/m 3,2 km/h (1 Bft) 100,00 %
02.10.2021 00:52 12,9 C 12,2 C 10,6 C 95 % 1013,7 hPa 0,0 l/m 0 min 0 min 0 W/m 3,2 km/h (1 Bft) 95,74 %
02.10.2021 00:54 12,9 C 12,2 C 10,6 C 95 % 1013,8 hPa 0,0 l/m 0 min 0 min 0 W/m 6,4 km/h (2 Bft) 98,00 %
02.10.2021 00:56 12,9 C 12,2 C 10,6 C 95 % 1013,7 hPa 0,0 l/m 0 min 0 min 0 W/m 9,7 km/h (2 Bft) 97,87 %
02.10.2021 00:58 12,9 C 12,2 C 10,6 C 95 % 1013,8 hPa 0,0 l/m 0 min 0 min 0 W/m 12,9 km/h (3 Bft) 97,96 %
02.10.2021 01:00 12,9 C 12,2 C 10,6 C 95 % 1013,7 hPa 0,0 l/m 0 min 0 min 0 W/m 12,9 km/h (3 Bft) 94,74 %
02.10.2021 01:02 12,9 C 12,2 C 10,6 C 95 % 1013,7 hPa 0,0 l/m 0 min 0 min 0 W/m 9,7 km/h (2 Bft) 100,00 %
02.10.2021 01:04 12,9 C 12,2 C 10,6 C 95 % 1013,7 hPa 0,0 l/m 0 min 0 min 0 W/m 12,9 km/h (3 Bft) 100,00 %
02.10.2021 01:06 12,9 C 12,2 C 10,6 C 95 % 1013,6 hPa 0,0 l/m 0 min 0 min 0 W/m 12,9 km/h (3 Bft) 97,87 %
02.10.2021 01:08 12,9 C 12,2 C 10,6 C 95 % 1013,6 hPa 0,0 l/m 0 min 0 min 0 W/m 6,4 km/h (2 Bft) 96,30 %
02.10.2021 01:10 12,9 C 12,2 C 10,6 C 95 % 1013,5 hPa 0,0 l/m 0 min 0 min 0 W/m 12,9 km/h (3 Bft) 95,74 %
02.10.2021 01:12 12,9 C 12,2 C 10,6 C 95 % 1013,5 hPa 0,0 l/m 0 min 0 min 0 W/m 6,4 km/h (2 Bft) 100,00 %
02.10.2021 01:14 12,9 C 12,2 C 10,6 C 95 % 1013,5 hPa 0,0 l/m 0 min 0 min 0 W/m 16,1 km/h (3 Bft) 97,87 %
02.10.2021 01:16 12,9 C 12,2 C 10,6 C 95 % 1013,5 hPa 0,0 l/m 0 min 0 min 0 W/m 12,9 km/h (3 Bft) 95,83 %
02.10.2021 01:18 12,9 C 12,2 C 10,6 C 95 % 1013,5 hPa 0,0 l/m 0 min 0 min 0 W/m 12,9 km/h (3 Bft) 95,74 %
02.10.2021 01:20 12,9 C 12,2 C 10,6 C 95 % 1013,5 hPa 0,0 l/m 0 min 0 min 0 W/m 12,9 km/h (3 Bft) 98,15 %
02.10.2021 01:22 12,9 C 12,2 C 10,6 C 95 % 1013,5 hPa 0,0 l/m 0 min 0 min 0 W/m 12,9 km/h (3 Bft) 97,37 %
02.10.2021 01:24 12,9 C 12,2 C 10,6 C 95 % 1013,4 hPa 0,0 l/m 0 min 0 min 0 W/m 12,9 km/h (3 Bft) 97,87 %
02.10.2021 01:26 12,9 C 12,2 C 10,6 C 95 % 1013,5 hPa 0,0 l/m 0 min 0 min 0 W/m 12,9 km/h (3 Bft) 97,87 %
02.10.2021 01:28 12,9 C 12,2 C 10,6 C 95 % 1013,5 hPa 0,0 l/m 0 min 0 min 0 W/m 19,3 km/h (3 Bft) 97,92 %
02.10.2021 01:30 12,9 C 12,2 C 10,6 C 95 % 1013,5 hPa 0,0 l/m 0 min 0 min 0 W/m 16,1 km/h (3 Bft) 97,87 %
02.10.2021 01:32 13,0 C 12,2 C 10,6 C 95 % 1013,5 hPa 0,0 l/m 0 min 0 min 0 W/m 22,5 km/h (4 Bft) 97,87 %
02.10.2021 01:34 12,9 C 12,2 C 10,6 C 95 % 1013,5 hPa 0,0 l/m 0 min 0 min 0 W/m 22,5 km/h (4 Bft) 98,15 %
02.10.2021 01:36 13,0 C 12,2 C 10,6 C 95 % 1013,5 hPa 0,0 l/m 0 min 0 min 0 W/m 12,9 km/h (3 Bft) 97,87 %
02.10.2021 01:38 13,0 C 12,2 C 10,6 C 95 % 1013,5 hPa 0,0 l/m 0 min 0 min 0 W/m 19,3 km/h (3 Bft) 97,37 %
02.10.2021 01:40 13,0 C 12,2 C 10,6 C 95 % 1013,5 hPa 0,0 l/m 0 min 0 min 0 W/m 12,9 km/h (3 Bft) 100,00 %
02.10.2021 01:42 13,0 C 12,2 C 10,6 C 95 % 1013,5 hPa 0,0 l/m 0 min 0 min 0 W/m 12,9 km/h (3 Bft) 100,00 %
02.10.2021 01:44 13,0 C 12,2 C 10,6 C 95 % 1013,5 hPa 0,0 l/m 0 min 0 min 0 W/m 19,3 km/h (3 Bft) 100,00 %
02.10.2021 01:46 13,0 C 12,2 C 10,6 C 95 % 1013,5 hPa 0,0 l/m 0 min 0 min 0 W/m 16,1 km/h (3 Bft) 97,92 %
02.10.2021 01:48 13,0 C 12,2 C 10,6 C 95 % 1013,4 hPa 0,0 l/m 0 min 0 min 0 W/m 12,9 km/h (3 Bft) 100,00 %
02.10.2021 01:50 13,0 C 12,2 C 10,6 C 95 % 1013,5 hPa 0,0 l/m 0 min 0 min 0 W/m 9,7 km/h (2 Bft) 100,00 %
02.10.2021 01:52 13,0 C 12,2 C 10,6 C 95 % 1013,5 hPa 0,0 l/m 0 min 0 min 0 W/m 16,1 km/h (3 Bft) 100,00 %
02.10.2021 01:54 13,0 C 12,2 C 10,6 C 95 % 1013,5 hPa 0,0 l/m 0 min 0 min 0 W/m 12,9 km/h (3 Bft) 100,00 %
02.10.2021 01:56 13,0 C 12,2 C 10,6 C 95 % 1013,4 hPa 0,0 l/m 0 min 0 min 0 W/m 12,9 km/h (3 Bft) 100,00 %
02.10.2021 01:58 13,0 C 12,2 C 10,6 C 95 % 1013,4 hPa 0,0 l/m 0 min 0 min 0 W/m 19,3 km/h (3 Bft) 100,00 %
02.10.2021 02:00 13,0 C 12,2 C 10,6 C 95 % 1013,4 hPa 0,0 l/m 0 min 0 min 0 W/m 12,9 km/h (3 Bft) 100,00 %
02.10.2021 02:02 13,0 C 12,2 C 10,6 C 95 % 1013,4 hPa 0,0 l/m 0 min 0 min 0 W/m 12,9 km/h (3 Bft) 100,00 %
02.10.2021 02:04 13,0 C 12,2 C 10,6 C 95 % 1013,4 hPa 0,0 l/m 0 min 0 min 0 W/m 9,7 km/h (2 Bft) 100,00 %
02.10.2021 02:06 13,0 C 12,2 C 10,6 C 95 % 1013,3 hPa 0,0 l/m 0 min 0 min 0 W/m 12,9 km/h (3 Bft) 97,87 %
02.10.2021 02:08 13,1 C 12,2 C 10,6 C 95 % 1013,3 hPa 0,0 l/m 0 min 0 min 0 W/m 9,7 km/h (2 Bft) 100,00 %
02.10.2021 02:10 13,0 C 12,2 C 10,6 C 95 % 1013,3 hPa 0,0 l/m 0 min 0 min 0 W/m 16,1 km/h (3 Bft) 100,00 %
02.10.2021 02:12 13,1 C 12,2 C 10,6 C 95 % 1013,3 hPa 0,0 l/m 0 min 0 min 0 W/m 16,1 km/h (3 Bft) 100,00 %
02.10.2021 02:14 13,1 C 12,2 C 10,6 C 95 % 1013,3 hPa 0,0 l/m 0 min 0 min 0 W/m 9,7 km/h (2 Bft) 100,00 %
02.10.2021 02:16 13,1 C 12,2 C 10,6 C 95 % 1013,4 hPa 0,0 l/m 0 min 0 min 0 W/m 6,4 km/h (2 Bft) 97,87 %
02.10.2021 02:18 13,1 C 12,2 C 10,6 C 95 % 1013,4 hPa 0,0 l/m 0 min 0 min 0 W/m 9,7 km/h (2 Bft) 100,00 %
02.10.2021 02:20 13,1 C 12,2 C 10,6 C 95 % 1013,4 hPa 0,0 l/m 0 min 0 min 0 W/m 12,9 km/h (3 Bft) 97,83 %
02.10.2021 02:22 13,1 C 12,2 C 11,1 C 95 % 1013,4 hPa 0,0 l/m 0 min 0 min 0 W/m 6,4 km/h (2 Bft) 100,00 %
02.10.2021 02:24 13,1 C 12,2 C 11,1 C 95 % 1013,4 hPa 0,0 l/m 0 min 0 min 0 W/m 12,9 km/h (3 Bft) 97,87 %
02.10.2021 02:26 13,1 C 12,2 C 11,1 C 95 % 1013,3 hPa 0,0 l/m 0 min 0 min 0 W/m 12,9 km/h (3 Bft) 100,00 %
02.10.2021 02:28 13,1 C 12,2 C 11,1 C 95 % 1013,4 hPa 0,0 l/m 0 min 0 min 0 W/m 6,4 km/h (2 Bft) 100,00 %
02.10.2021 02:30 13,1 C 12,2 C 11,1 C 95 % 1013,4 hPa 0,0 l/m 0 min 0 min 0 W/m 6,4 km/h (2 Bft) 95,74 %
02.10.2021 02:32 13,1 C 12,2 C 11,1 C 95 % 1013,4 hPa 0,0 l/m 0 min 0 min 0 W/m 16,1 km/h (3 Bft) 95,65 %
02.10.2021 02:34 13,1 C 12,2 C 11,1 C 95 % 1013,3 hPa 0,0 l/m 0 min 0 min 0 W/m 12,9 km/h (3 Bft) 97,87 %
02.10.2021 02:36 13,1 C 12,2 C 11,1 C 95 % 1013,3 hPa 0,0 l/m 0 min 0 min 0 W/m 12,9 km/h (3 Bft) 97,87 %
02.10.2021 02:38 13,1 C 12,2 C 11,1 C 95 % 1013,4 hPa 0,0 l/m 0 min 0 min 0 W/m 12,9 km/h (3 Bft) 97,87 %
02.10.2021 02:40 13,1 C 12,8 C 11,1 C 95 % 1013,3 hPa 0,0 l/m 0 min 0 min 0 W/m 9,7 km/h (2 Bft) 95,74 %
02.10.2021 02:42 13,1 C 12,8 C 11,1 C 95 % 1013,4 hPa 0,0 l/m 0 min 0 min 0 W/m 12,9 km/h (3 Bft) 97,83 %
02.10.2021 02:44 13,1 C 12,8 C 11,1 C 95 % 1013,4 hPa 0,0 l/m 0 min 0 min 0 W/m 12,9 km/h (3 Bft) 97,87 %
02.10.2021 02:46 13,1 C 12,8 C 11,1 C 95 % 1013,4 hPa 0,0 l/m 0 min 0 min 0 W/m 12,9 km/h (3 Bft) 95,74 %
02.10.2021 02:48 13,1 C 12,8 C 11,1 C 95 % 1013,4 hPa 0,0 l/m 0 min 0 min 0 W/m 19,3 km/h (3 Bft) 95,74 %
02.10.2021 02:50 13,1 C 12,8 C 11,1 C 95 % 1013,4 hPa 0,0 l/m 0 min 0 min 0 W/m 22,5 km/h (4 Bft) 97,87 %
02.10.2021 02:52 13,1 C 12,8 C 11,1 C 95 % 1013,4 hPa 0,0 l/m 0 min 0 min 0 W/m 16,1 km/h (3 Bft) 91,49 %
02.10.2021 02:54 13,2 C 12,8 C 11,1 C 95 % 1013,4 hPa 0,0 l/m 0 min 0 min 0 W/m 12,9 km/h (3 Bft) 97,83 %
02.10.2021 02:56 13,1 C 12,8 C 11,1 C 95 % 1013,4 hPa 0,0 l/m 0 min 0 min 0 W/m 16,1 km/h (3 Bft) 97,87 %
02.10.2021 02:58 13,2 C 12,8 C 11,1 C 95 % 1013,4 hPa 0,0 l/m 0 min 0 min 0 W/m 12,9 km/h (3 Bft) 97,87 %
02.10.2021 03:00 13,2 C 12,8 C 11,1 C 95 % 1013,3 hPa 0,0 l/m 0 min 0 min 0 W/m 12,9 km/h (3 Bft) 95,74 %
02.10.2021 03:02 13,2 C 12,8 C 11,1 C 95 % 1013,3 hPa 0,0 l/m 0 min 0 min 0 W/m 12,9 km/h (3 Bft) 95,74 %
02.10.2021 03:04 13,2 C 12,8 C 11,1 C 95 % 1013,3 hPa 0,0 l/m 0 min 0 min 0 W/m 19,3 km/h (3 Bft) 95,74 %
02.10.2021 03:06 13,2 C 12,8 C 11,1 C 95 % 1013,2 hPa 0,0 l/m 0 min 0 min 0 W/m 12,9 km/h (3 Bft) 95,65 %
02.10.2021 03:08 13,2 C 12,8 C 11,1 C 95 % 1013,2 hPa 0,0 l/m 0 min 0 min 0 W/m 16,1 km/h (3 Bft) 93,62 %
02.10.2021 03:10 13,2 C 12,8 C 11,1 C 95 % 1013,2 hPa 0,0 l/m 0 min 0 min 0 W/m 16,1 km/h (3 Bft) 91,49 %
02.10.2021 03:12 13,2 C 12,8 C 11,1 C 95 % 1013,1 hPa 0,0 l/m 0 min 0 min 0 W/m 19,3 km/h (3 Bft) 95,74 %
02.10.2021 03:14 13,2 C 12,8 C 11,1 C 95 % 1013,1 hPa 0,0 l/m 0 min 0 min 0 W/m 19,3 km/h (3 Bft) 95,74 %
02.10.2021 03:16 13,2 C 12,8 C 11,1 C 95 % 1013,2 hPa 0,0 l/m 0 min 0 min 0 W/m 19,3 km/h (3 Bft) 95,74 %
02.10.2021 03:18 13,2 C 12,8 C 11,1 C 95 % 1013,1 hPa 0,0 l/m 0 min 0 min 0 W/m 16,1 km/h (3 Bft) 95,65 %
02.10.2021 03:20 13,2 C 12,8 C 11,1 C 95 % 1013,1 hPa 0,0 l/m 0 min 0 min 0 W/m 16,1 km/h (3 Bft) 95,74 %
02.10.2021 03:22 13,2 C 12,8 C 11,1 C 95 % 1013,0 hPa 0,0 l/m 0 min 0 min 0 W/m 9,7 km/h (2 Bft) 95,74 %
02.10.2021 03:24 13,2 C 12,8 C 11,1 C 95 % 1013,0 hPa 0,0 l/m 0 min 0 min 0 W/m 12,9 km/h (3 Bft) 93,62 %
02.10.2021 03:26 13,2 C 12,8 C 11,1 C 95 % 1013,0 hPa 0,0 l/m 0 min 0 min 0 W/m 16,1 km/h (3 Bft) 95,74 %
02.10.2021 03:28 13,2 C 12,8 C 11,1 C 95 % 1013,0 hPa 0,0 l/m 0 min 0 min 0 W/m 16,1 km/h (3 Bft) 93,62 %
02.10.2021 03:30 13,2 C 12,8 C 11,1 C 95 % 1013,0 hPa 0,0 l/m 0 min 0 min 0 W/m 9,7 km/h (2 Bft) 95,65 %
02.10.2021 03:32 13,2 C 12,8 C 11,1 C 95 % 1013,0 hPa 0,0 l/m 0 min 0 min 0 W/m 12,9 km/h (3 Bft) 93,62 %
02.10.2021 03:34 13,2 C 12,8 C 11,1 C 95 % 1012,9 hPa 0,0 l/m 0 min 0 min 0 W/m 16,1 km/h (3 Bft) 97,87 %
02.10.2021 03:36 13,2 C 12,8 C 11,1 C 95 % 1013,0 hPa 0,0 l/m 0 min 0 min 0 W/m 19,3 km/h (3 Bft) 97,87 %
02.10.2021 03:38 13,2 C 12,8 C 11,1 C 95 % 1013,0 hPa 0,0 l/m 0 min 0 min 0 W/m 19,3 km/h (3 Bft) 98,00 %
02.10.2021 03:40 13,2 C 12,8 C 11,1 C 95 % 1013,0 hPa 0,0 l/m 0 min 0 min 0 W/m 16,1 km/h (3 Bft) 97,83 %
02.10.2021 03:42 13,2 C 12,8 C 11,1 C 95 % 1013,1 hPa 0,0 l/m 0 min 2 min 0 W/m 16,1 km/h (3 Bft) 97,87 %
02.10.2021 03:44 13,2 C 12,8 C 11,1 C 95 % 1013,1 hPa 0,0 l/m 0 min 2 min 0 W/m 19,3 km/h (3 Bft) 97,87 %
02.10.2021 03:46 13,2 C 12,8 C 11,1 C 95 % 1013,1 hPa 0,0 l/m 0 min 2 min 0 W/m 16,1 km/h (3 Bft) 93,62 %
02.10.2021 03:48 13,2 C 12,8 C 11,1 C 95 % 1013,1 hPa 0,0 l/m 0 min 2 min 0 W/m 9,7 km/h (2 Bft) 97,87 %
02.10.2021 03:50 13,2 C 12,8 C 11,1 C 95 % 1013,1 hPa 0,0 l/m 0 min 2 min 0 W/m 12,9 km/h (3 Bft) 97,87 %
02.10.2021 03:52 13,2 C 12,8 C 11,1 C 95 % 1013,1 hPa 0,0 l/m 0 min 2 min 0 W/m 16,1 km/h (3 Bft) 97,83 %
02.10.2021 03:54 13,3 C 12,8 C 11,1 C 95 % 1013,1 hPa 0,0 l/m 0 min 2 min 0 W/m 9,7 km/h (2 Bft) 97,87 %
02.10.2021 03:56 13,3 C 12,8 C 11,1 C 95 % 1013,0 hPa 0,2 l/m 0 min 2 min 0 W/m 12,9 km/h (3 Bft) 97,87 %
02.10.2021 03:58 13,3 C 12,2 C 11,1 C 95 % 1013,0 hPa 0,0 l/m 0 min 2 min 0 W/m 12,9 km/h (3 Bft) 95,92 %
02.10.2021 04:00 13,2 C 12,2 C 11,1 C 95 % 1012,9 hPa 0,0 l/m 0 min 0 min 0 W/m 12,9 km/h (3 Bft) 100,00 %
02.10.2021 04:02 13,2 C 12,2 C 11,1 C 95 % 1012,9 hPa 0,0 l/m 0 min 0 min 0 W/m 12,9 km/h (3 Bft) 100,00 %
02.10.2021 04:04 13,2 C 12,2 C 11,1 C 95 % 1012,9 hPa 0,0 l/m 0 min 0 min 0 W/m 16,1 km/h (3 Bft) 100,00 %
02.10.2021 04:06 13,1 C 12,2 C 11,1 C 95 % 1013,0 hPa 0,0 l/m 0 min 0 min 0 W/m 12,9 km/h (3 Bft) 97,87 %
02.10.2021 04:08 13,1 C 12,2 C 11,1 C 95 % 1013,0 hPa 0,0 l/m 0 min 0 min 0 W/m 16,1 km/h (3 Bft) 100,00 %
02.10.2021 04:10 13,1 C 12,2 C 11,1 C 95 % 1012,9 hPa 0,0 l/m 0 min 0 min 0 W/m 12,9 km/h (3 Bft) 97,87 %
02.10.2021 04:12 13,1 C 12,2 C 11,1 C 95 % 1013,0 hPa 0,0 l/m 0 min 0 min 0 W/m 16,1 km/h (3 Bft) 97,87 %
02.10.2021 04:14 13,1 C 12,2 C 11,1 C 95 % 1012,9 hPa 0,0 l/m 0 min 0 min 0 W/m 16,1 km/h (3 Bft) 100,00 %
02.10.2021 04:16 13,1 C 12,2 C 11,1 C 95 % 1012,9 hPa 0,0 l/m 0 min 0 min 0 W/m 9,7 km/h (2 Bft) 95,65 %
02.10.2021 04:18 13,1 C 12,2 C 11,1 C 95 % 1012,9 hPa 0,0 l/m 0 min 0 min 0 W/m 3,2 km/h (1 Bft) 100,00 %
02.10.2021 04:20 13,1 C 12,2 C 11,1 C 95 % 1012,8 hPa 0,0 l/m 0 min 0 min 0 W/m 6,4 km/h (2 Bft) 97,87 %
02.10.2021 04:22 13,1 C 12,2 C 11,1 C 95 % 1012,8 hPa 0,0 l/m 0 min 0 min 0 W/m 9,7 km/h (2 Bft) 100,00 %
02.10.2021 04:24 13,1 C 12,2 C 11,1 C 95 % 1012,8 hPa 0,0 l/m 0 min 0 min 0 W/m 6,4 km/h (2 Bft) 100,00 %
02.10.2021 04:26 13,1 C 12,2 C 11,1 C 95 % 1012,8 hPa 0,0 l/m 0 min 0 min 0 W/m 19,3 km/h (3 Bft) 100,00 %
02.10.2021 04:28 13,1 C 12,2 C 11,1 C 95 % 1012,9 hPa 0,0 l/m 0 min 0 min 0 W/m 16,1 km/h (3 Bft) 100,00 %
02.10.2021 04:30 13,1 C 12,2 C 11,1 C 95 % 1012,8 hPa 0,0 l/m 0 min 0 min 0 W/m 16,1 km/h (3 Bft) 100,00 %
02.10.2021 04:32 13,1 C 12,2 C 11,1 C 95 % 1012,7 hPa 0,0 l/m 0 min 0 min 0 W/m 16,1 km/h (3 Bft) 95,74 %
02.10.2021 04:34 13,1 C 12,2 C 11,1 C 95 % 1012,7 hPa 0,0 l/m 0 min 0 min 0 W/m 12,9 km/h (3 Bft) 100,00 %
02.10.2021 04:36 13,1 C 12,2 C 11,1 C 95 % 1012,8 hPa 0,0 l/m 0 min 0 min 0 W/m 9,7 km/h (2 Bft) 100,00 %
02.10.2021 04:38 13,1 C 12,2 C 11,1 C 95 % 1012,8 hPa 0,0 l/m 0 min 0 min 0 W/m 12,9 km/h (3 Bft) 100,00 %
02.10.2021 04:40 13,0 C 12,2 C 11,1 C 95 % 1012,8 hPa 0,0 l/m 0 min 0 min 0 W/m 9,7 km/h (2 Bft) 100,00 %
02.10.2021 04:42 13,0 C 12,2 C 11,1 C 95 % 1012,7 hPa 0,0 l/m 0 min 0 min 0 W/m 9,7 km/h (2 Bft) 100,00 %
02.10.2021 04:44 13,0 C 12,2 C 11,1 C 95 % 1012,8 hPa 0,0 l/m 0 min 0 min 0 W/m 12,9 km/h (3 Bft) 100,00 %
02.10.2021 04:46 13,0 C 12,2 C 11,1 C 95 % 1012,8 hPa 0,0 l/m 0 min 0 min 0 W/m 12,9 km/h (3 Bft) 97,87 %
02.10.2021 04:48 13,0 C 12,2 C 11,1 C 95 % 1012,8 hPa 0,0 l/m 0 min 0 min 0 W/m 12,9 km/h (3 Bft) 100,00 %
02.10.2021 04:50 13,0 C 12,2 C 11,1 C 95 % 1012,6 hPa 0,0 l/m 0 min 0 min 0 W/m 6,4 km/h (2 Bft) 100,00 %
02.10.2021 04:52 13,0 C 12,2 C 11,1 C 95 % 1012,7 hPa 0,0 l/m 0 min 0 min 0 W/m 6,4 km/h (2 Bft) 97,87 %
02.10.2021 04:54 13,0 C 12,2 C 11,1 C 95 % 1012,7 hPa 0,0 l/m 0 min 0 min 0 W/m 3,2 km/h (1 Bft) 95,74 %
02.10.2021 04:56 13,0 C 12,2 C 11,1 C 95 % 1012,7 hPa 0,0 l/m 0 min 0 min 0 W/m 12,9 km/h (3 Bft) 95,74 %
02.10.2021 04:58 13,0 C 12,2 C 11,1 C 95 % 1012,7 hPa 0,0 l/m 0 min 0 min 0 W/m 9,7 km/h (2 Bft) 97,87 %
02.10.2021 05:00 13,0 C 12,2 C 11,1 C 95 % 1012,8 hPa 0,0 l/m 0 min 0 min 0 W/m 9,7 km/h (2 Bft) 95,74 %
02.10.2021 05:02 13,0 C 12,2 C 11,1 C 95 % 1012,8 hPa 0,0 l/m 0 min 0 min 0 W/m 9,7 km/h (2 Bft) 95,65 %
02.10.2021 05:04 13,0 C 12,2 C 11,1 C 95 % 1012,8 hPa 0,0 l/m 0 min 0 min 0 W/m 3,2 km/h (1 Bft) 95,74 %
02.10.2021 05:06 12,9 C 12,2 C 11,1 C 95 % 1012,7 hPa 0,0 l/m 0 min 0 min 0 W/m 9,7 km/h (2 Bft) 95,74 %
02.10.2021 05:08 12,9 C 12,2 C 11,1 C 95 % 1012,7 hPa 0,0 l/m 0 min 0 min 0 W/m 6,4 km/h (2 Bft) 95,74 %
02.10.2021 05:10 12,9 C 12,2 C 11,1 C 95 % 1012,5 hPa 0,0 l/m 0 min 0 min 0 W/m 6,4 km/h (2 Bft) 97,87 %
02.10.2021 05:12 12,9 C 12,2 C 11,1 C 95 % 1012,6 hPa 0,0 l/m 0 min 0 min 0 W/m 3,2 km/h (1 Bft) 95,65 %
02.10.2021 05:14 12,9 C 12,2 C 11,1 C 95 % 1012,7 hPa 0,0 l/m 0 min 0 min 0 W/m 9,7 km/h (2 Bft) 95,74 %
02.10.2021 05:16 12,9 C 12,2 C 11,1 C 95 % 1012,8 hPa 0,0 l/m 0 min 0 min 0 W/m 6,4 km/h (2 Bft) 95,74 %
02.10.2021 05:18 12,9 C 12,2 C 11,1 C 95 % 1012,7 hPa 0,0 l/m 0 min 0 min 0 W/m 6,4 km/h (2 Bft) 95,74 %
02.10.2021 05:20 12,9 C 12,2 C 11,1 C 95 % 1012,7 hPa 0,0 l/m 0 min 0 min 0 W/m 3,2 km/h (1 Bft) 95,74 %
02.10.2021 05:22 12,9 C 12,2 C 11,1 C 95 % 1012,6 hPa 0,0 l/m 0 min 0 min 0 W/m 6,4 km/h (2 Bft) 95,74 %
02.10.2021 05:24 12,9 C 12,2 C 11,1 C 95 % 1012,6 hPa 0,0 l/m 0 min 0 min 0 W/m 6,4 km/h (2 Bft) 95,65 %
02.10.2021 05:26 12,9 C 12,2 C 11,1 C 95 % 1012,6 hPa 0,0 l/m 0 min 0 min 0 W/m 6,4 km/h (2 Bft) 97,87 %
02.10.2021 05:28 12,9 C 12,2 C 11,1 C 95 % 1012,5 hPa 0,0 l/m 0 min 0 min 0 W/m 3,2 km/h (1 Bft) 97,87 %
02.10.2021 05:30 12,9 C 12,2 C 11,1 C 95 % 1012,6 hPa 0,0 l/m 0 min 0 min 0 W/m 9,7 km/h (2 Bft) 95,74 %
02.10.2021 05:32 12,9 C 12,2 C 11,1 C 95 % 1012,6 hPa 0,0 l/m 0 min 0 min 0 W/m 6,4 km/h (2 Bft) 97,87 %
02.10.2021 05:34 12,9 C 12,2 C 11,1 C 95 % 1012,6 hPa 0,0 l/m 0 min 0 min 0 W/m 3,2 km/h (1 Bft) 97,87 %
02.10.2021 05:36 12,9 C 12,2 C 11,1 C 95 % 1012,6 hPa 0,0 l/m 0 min 0 min 0 W/m 6,4 km/h (2 Bft) 97,83 %
02.10.2021 05:38 12,8 C 12,2 C 11,1 C 95 % 1012,5 hPa 0,0 l/m 0 min 0 min 0 W/m 6,4 km/h (2 Bft) 97,87 %
02.10.2021 05:40 12,9 C 12,2 C 11,1 C 95 % 1012,5 hPa 0,0 l/m 0 min 0 min 0 W/m 9,7 km/h (2 Bft) 95,74 %
02.10.2021 05:42 12,9 C 12,2 C 11,1 C 95 % 1012,5 hPa 0,0 l/m 0 min 0 min 0 W/m 9,7 km/h (2 Bft) 97,87 %
02.10.2021 05:44 12,8 C 12,2 C 11,1 C 95 % 1012,4 hPa 0,0 l/m 0 min 0 min 0 W/m 12,9 km/h (3 Bft) 97,87 %
02.10.2021 05:46 12,8 C 12,2 C 11,1 C 95 % 1012,5 hPa 0,0 l/m 0 min 0 min 0 W/m 6,4 km/h (2 Bft) 97,87 %
02.10.2021 05:48 12,8 C 12,2 C 11,1 C 95 % 1012,5 hPa 0,0 l/m 0 min 0 min 0 W/m 6,4 km/h (2 Bft) 100,00 %
02.10.2021 05:50 12,8 C 12,2 C 11,1 C 95 % 1012,4 hPa 0,0 l/m 0 min 0 min 0 W/m 9,7 km/h (2 Bft) 100,00 %
02.10.2021 05:52 12,8 C 12,2 C 11,1 C 95 % 1012,5 hPa 0,0 l/m 0 min 0 min 0 W/m 6,4 km/h (2 Bft) 97,87 %
02.10.2021 05:54 12,8 C 12,2 C 11,1 C 95 % 1012,4 hPa 0,0 l/m 0 min 0 min 0 W/m 12,9 km/h (3 Bft) 100,00 %
02.10.2021 05:56 12,8 C 12,2 C 11,1 C 95 % 1012,4 hPa 0,0 l/m 0 min 0 min 0 W/m 22,5 km/h (4 Bft) 100,00 %
02.10.2021 05:58 12,8 C 12,2 C 11,1 C 95 % 1012,4 hPa 0,0 l/m 0 min 0 min 0 W/m 9,7 km/h (2 Bft) 100,00 %
02.10.2021 06:00 12,8 C 12,2 C 11,1 C 95 % 1012,5 hPa 0,0 l/m 0 min 0 min 0 W/m 6,4 km/h (2 Bft) 100,00 %
02.10.2021 06:02 12,8 C 12,2 C 11,1 C 95 % 1012,5 hPa 0,0 l/m 0 min 0 min 0 W/m 9,7 km/h (2 Bft) 100,00 %
02.10.2021 06:04 12,8 C 12,2 C 11,1 C 95 % 1012,4 hPa 0,0 l/m 0 min 0 min 0 W/m 12,9 km/h (3 Bft) 97,87 %
02.10.2021 06:08 12,8 C 12,2 C 11,1 C 95 % 1012,5 hPa 0,0 l/m 0 min 0 min 0 W/m 6,4 km/h (2 Bft) 100,00 %
02.10.2021 06:10 12,8 C 12,2 C 11,1 C 95 % 1012,4 hPa 0,0 l/m 0 min 0 min 0 W/m 6,4 km/h (2 Bft) 95,74 %
02.10.2021 06:12 12,8 C 12,2 C 11,1 C 95 % 1012,5 hPa 0,0 l/m 0 min 0 min 0 W/m 9,7 km/h (2 Bft) 97,83 %
02.10.2021 06:14 12,8 C 12,2 C 11,1 C 95 % 1012,5 hPa 0,0 l/m 0 min 0 min 0 W/m 6,4 km/h (2 Bft) 97,87 %
02.10.2021 06:16 12,8 C 12,2 C 11,1 C 95 % 1012,5 hPa 0,0 l/m 0 min 0 min 0 W/m 6,4 km/h (2 Bft) 97,87 %
02.10.2021 06:18 12,8 C 12,2 C 11,1 C 95 % 1012,5 hPa 0,0 l/m 0 min 0 min 0 W/m 12,9 km/h (3 Bft) 95,74 %
02.10.2021 06:20 12,8 C 12,2 C 11,1 C 95 % 1012,5 hPa 0,0 l/m 0 min 0 min 0 W/m 9,7 km/h (2 Bft) 95,74 %
02.10.2021 06:22 12,8 C 12,2 C 11,1 C 95 % 1012,6 hPa 0,0 l/m 0 min 0 min 0 W/m 6,4 km/h (2 Bft) 97,87 %
02.10.2021 06:24 12,8 C 12,2 C 11,1 C 95 % 1012,5 hPa 0,0 l/m 0 min 0 min 0 W/m 3,2 km/h (1 Bft) 97,83 %
02.10.2021 06:26 12,8 C 12,2 C 11,1 C 95 % 1012,6 hPa 0,0 l/m 0 min 0 min 0 W/m 6,4 km/h (2 Bft) 95,74 %
02.10.2021 06:28 12,8 C 12,2 C 11,1 C 95 % 1012,6 hPa 0,0 l/m 0 min 0 min 0 W/m 3,2 km/h (1 Bft) 97,87 %
02.10.2021 06:30 12,8 C 12,2 C 11,1 C 95 % 1012,6 hPa 0,0 l/m 0 min 0 min 0 W/m 3,2 km/h (1 Bft) 97,87 %
02.10.2021 06:32 12,8 C 12,2 C 11,1 C 95 % 1012,5 hPa 0,0 l/m 0 min 0 min 0 W/m 12,9 km/h (3 Bft) 53,19 %
02.10.2021 06:34 12,8 C 12,2 C 11,1 C 95 % 1012,6 hPa 0,0 l/m 0 min 0 min 0 W/m 6,4 km/h (2 Bft) 97,78 %
02.10.2021 06:36 12,8 C 12,2 C 11,1 C 95 % 1012,5 hPa 0,0 l/m 0 min 0 min 0 W/m 6,4 km/h (2 Bft) 95,65 %
02.10.2021 06:38 12,8 C 12,2 C 11,1 C 95 % 1012,4 hPa 0,0 l/m 0 min 0 min 0 W/m 6,4 km/h (2 Bft) 95,74 %
02.10.2021 06:40 12,8 C 12,2 C 11,1 C 95 % 1012,4 hPa 0,0 l/m 0 min 0 min 0 W/m 3,2 km/h (1 Bft) 97,87 %
02.10.2021 06:42 12,8 C 12,2 C 11,1 C 95 % 1012,5 hPa 0,0 l/m 0 min 0 min 0 W/m 6,4 km/h (2 Bft) 97,87 %
02.10.2021 06:44 12,8 C 12,2 C 11,1 C 95 % 1012,5 hPa 0,0 l/m 0 min 0 min 0 W/m 6,4 km/h (2 Bft) 97,87 %
02.10.2021 06:46 12,8 C 12,2 C 11,1 C 95 % 1012,6 hPa 0,0 l/m 0 min 0 min 0 W/m 3,2 km/h (1 Bft) 95,74 %
02.10.2021 06:48 12,8 C 12,2 C 11,1 C 95 % 1012,5 hPa 0,0 l/m 0 min 0 min 0 W/m 6,4 km/h (2 Bft) 95,65 %
02.10.2021 06:50 12,8 C 12,2 C 11,1 C 95 % 1012,5 hPa 0,0 l/m 0 min 0 min 0 W/m 3,2 km/h (1 Bft) 95,74 %
02.10.2021 06:52 12,8 C 12,2 C 11,1 C 95 % 1012,5 hPa 0,0 l/m 0 min 0 min 0 W/m 3,2 km/h (1 Bft) 93,62 %
02.10.2021 06:54 12,8 C 12,2 C 11,1 C 95 % 1012,5 hPa 0,0 l/m 0 min 0 min 0 W/m 3,2 km/h (1 Bft) 93,62 %
02.10.2021 06:56 12,8 C 12,2 C 11,1 C 95 % 1012,5 hPa 0,0 l/m 0 min 2 min 0 W/m 3,2 km/h (1 Bft) 93,62 %
02.10.2021 06:58 12,8 C 12,2 C 11,1 C 95 % 1012,4 hPa 0,0 l/m 0 min 2 min 0 W/m 3,2 km/h (1 Bft) 95,65 %
02.10.2021 07:00 12,8 C 12,2 C 11,1 C 95 % 1012,4 hPa 0,0 l/m 0 min 2 min 0 W/m 6,4 km/h (2 Bft) 95,74 %
02.10.2021 07:02 12,8 C 12,2 C 11,1 C 95 % 1012,5 hPa 0,0 l/m 0 min 2 min 0 W/m 3,2 km/h (1 Bft) 95,74 %
02.10.2021 07:04 12,8 C 12,2 C 11,1 C 95 % 1012,4 hPa 0,0 l/m 0 min 0 min 0 W/m 6,4 km/h (2 Bft) 97,87 %
02.10.2021 07:06 12,8 C 12,2 C 11,1 C 95 % 1012,4 hPa 0,0 l/m 0 min 0 min 0 W/m 9,7 km/h (2 Bft) 95,74 %
02.10.2021 07:08 12,8 C 12,2 C 11,1 C 95 % 1012,4 hPa 0,0 l/m 0 min 0 min 0 W/m 16,1 km/h (3 Bft) 95,74 %
02.10.2021 07:10 12,7 C 12,2 C 11,1 C 95 % 1012,4 hPa 0,0 l/m 0 min 0 min 0 W/m 6,4 km/h (2 Bft) 97,83 %
02.10.2021 07:12 12,7 C 12,2 C 11,1 C 95 % 1012,3 hPa 0,0 l/m 0 min 0 min 0 W/m 6,4 km/h (2 Bft) 97,87 %
02.10.2021 07:14 12,7 C 12,2 C 11,1 C 95 % 1012,4 hPa 0,0 l/m 0 min 0 min 0 W/m 3,2 km/h (1 Bft) 95,74 %
02.10.2021 07:16 12,7 C 11,7 C 11,1 C 95 % 1012,4 hPa 0,0 l/m 0 min 0 min 0 W/m 6,4 km/h (2 Bft) 97,87 %
02.10.2021 07:18 12,7 C 11,7 C 11,1 C 95 % 1012,4 hPa 0,0 l/m 0 min 0 min 0 W/m 6,4 km/h (2 Bft) 97,87 %
02.10.2021 07:20 12,7 C 11,7 C 11,1 C 95 % 1012,3 hPa 0,0 l/m 0 min 0 min 0 W/m 6,4 km/h (2 Bft) 100,00 %
02.10.2021 07:22 12,6 C 11,7 C 11,1 C 95 % 1012,2 hPa 0,0 l/m 0 min 0 min 0 W/m 6,4 km/h (2 Bft) 100,00 %
02.10.2021 07:24 12,6 C 11,7 C 11,1 C 95 % 1012,2 hPa 0,0 l/m 0 min 0 min 0 W/m 3,2 km/h (1 Bft) 100,00 %
02.10.2021 07:26 12,6 C 11,7 C 11,1 C 95 % 1012,2 hPa 0,0 l/m 0 min 0 min 0 W/m 3,2 km/h (1 Bft) 100,00 %
02.10.2021 07:28 12,6 C 11,7 C 11,1 C 95 % 1012,2 hPa 0,0 l/m 0 min 0 min 0 W/m 6,4 km/h (2 Bft) 97,87 %
02.10.2021 07:30 12,6 C 11,7 C 11,1 C 95 % 1012,3 hPa 0,0 l/m 0 min 0 min 0 W/m 6,4 km/h (2 Bft) 100,00 %
02.10.2021 07:32 12,6 C 11,7 C 10,6 C 95 % 1012,4 hPa 0,0 l/m 0 min 0 min 0 W/m 3,2 km/h (1 Bft) 97,87 %
02.10.2021 07:34 12,6 C 11,7 C 10,6 C 95 % 1012,3 hPa 0,0 l/m 0 min 0 min 0 W/m 3,2 km/h (1 Bft) 100,00 %
02.10.2021 07:36 12,5 C 11,7 C 10,6 C 95 % 1012,4 hPa 0,0 l/m 0 min 0 min 0 W/m 9,7 km/h (2 Bft) 100,00 %
02.10.2021 07:38 12,5 C 11,7 C 10,6 C 95 % 1012,4 hPa 0,0 l/m 0 min 0 min 0 W/m 3,2 km/h (1 Bft) 97,87 %
02.10.2021 07:40 12,5 C 11,7 C 10,6 C 95 % 1012,5 hPa 0,0 l/m 0 min 0 min 0 W/m 6,4 km/h (2 Bft) 97,87 %
02.10.2021 07:42 12,5 C 11,7 C 10,6 C 95 % 1012,5 hPa 0,0 l/m 0 min 0 min 0 W/m 0,0 km/h (0 Bft) 95,74 %
02.10.2021 07:44 12,5 C 11,7 C 10,6 C 95 % 1012,5 hPa 0,0 l/m 0 min 0 min 3 W/m 3,2 km/h (1 Bft) 97,87 %
02.10.2021 07:46 12,5 C 11,7 C 10,6 C 95 % 1012,5 hPa 0,0 l/m 0 min 0 min 5 W/m 6,4 km/h (2 Bft) 95,65 %
02.10.2021 07:48 12,4 C 11,7 C 10,6 C 95 % 1012,5 hPa 0,0 l/m 0 min 0 min 5 W/m 3,2 km/h (1 Bft) 97,87 %
02.10.2021 07:50 12,4 C 11,7 C 10,6 C 95 % 1012,5 hPa 0,0 l/m 0 min 0 min 6 W/m 3,2 km/h (1 Bft) 97,87 %
02.10.2021 07:52 12,4 C 11,1 C 10,6 C 95 % 1012,5 hPa 0,0 l/m 0 min 0 min 7 W/m 3,2 km/h (1 Bft) 95,74 %
02.10.2021 07:54 12,4 C 11,1 C 10,6 C 95 % 1012,5 hPa 0,0 l/m 0 min 0 min 7 W/m 3,2 km/h (1 Bft) 97,87 %
02.10.2021 07:56 12,4 C 11,1 C 10,6 C 95 % 1012,5 hPa 0,0 l/m 0 min 0 min 7 W/m 6,4 km/h (2 Bft) 97,83 %
02.10.2021 07:58 12,4 C 11,1 C 10,6 C 95 % 1012,4 hPa 0,0 l/m 0 min 0 min 9 W/m 3,2 km/h (1 Bft) 97,87 %
02.10.2021 08:00 12,3 C 11,1 C 10,6 C 95 % 1012,5 hPa 0,0 l/m 0 min 0 min 9 W/m 3,2 km/h (1 Bft) 97,87 %
02.10.2021 08:02 12,3 C 11,1 C 10,6 C 95 % 1012,6 hPa 0,0 l/m 0 min 0 min 9 W/m 6,4 km/h (2 Bft) 97,87 %
02.10.2021 08:04 12,3 C 11,1 C 10,6 C 95 % 1012,6 hPa 0,0 l/m 0 min 0 min 10 W/m 3,2 km/h (1 Bft) 97,92 %
02.10.2021 08:06 12,3 C 11,1 C 10,6 C 95 % 1012,6 hPa 0,0 l/m 0 min 0 min 11 W/m 3,2 km/h (1 Bft) 97,87 %
02.10.2021 08:08 12,3 C 11,1 C 10,6 C 95 % 1012,6 hPa 0,0 l/m 0 min 0 min 12 W/m 3,2 km/h (1 Bft) 97,83 %
02.10.2021 08:10 12,3 C 11,1 C 10,6 C 95 % 1012,6 hPa 0,0 l/m 0 min 0 min 12 W/m 3,2 km/h (1 Bft) 97,87 %
02.10.2021 08:12 12,3 C 11,1 C 10,6 C 95 % 1012,6 hPa 0,0 l/m 0 min 0 min 12 W/m 3,2 km/h (1 Bft) 95,74 %
02.10.2021 08:14 12,2 C 11,1 C 10,6 C 95 % 1012,6 hPa 0,0 l/m 0 min 0 min 12 W/m 3,2 km/h (1 Bft) 97,87 %
02.10.2021 08:16 12,2 C 11,7 C 10,6 C 95 % 1012,6 hPa 0,0 l/m 0 min 0 min 14 W/m 6,4 km/h (2 Bft) 95,74 %
02.10.2021 08:18 12,2 C 11,7 C 10,6 C 95 % 1012,7 hPa 0,0 l/m 0 min 0 min 17 W/m 3,2 km/h (1 Bft) 100,00 %
02.10.2021 08:20 12,2 C 11,7 C 10,6 C 95 % 1012,7 hPa 0,0 l/m 0 min 0 min 19 W/m 3,2 km/h (1 Bft) 100,00 %
02.10.2021 08:22 12,2 C 11,7 C 10,6 C 95 % 1012,7 hPa 0,0 l/m 0 min 0 min 22 W/m 3,2 km/h (1 Bft) 100,00 %
02.10.2021 08:24 12,2 C 11,7 C 10,6 C 95 % 1012,7 hPa 0,0 l/m 0 min 0 min 21 W/m 6,4 km/h (2 Bft) 97,87 %
02.10.2021 08:26 12,2 C 11,7 C 10,6 C 95 % 1012,7 hPa 0,0 l/m 0 min 0 min 20 W/m 3,2 km/h (1 Bft) 100,00 %
02.10.2021 08:28 12,3 C 11,7 C 10,6 C 95 % 1012,7 hPa 0,0 l/m 0 min 0 min 18 W/m 3,2 km/h (1 Bft) 100,00 %
02.10.2021 08:30 12,3 C 11,7 C 11,1 C 95 % 1012,6 hPa 0,0 l/m 0 min 0 min 18 W/m 6,4 km/h (2 Bft) 100,00 %
02.10.2021 08:32 12,3 C 11,7 C 11,1 C 95 % 1012,6 hPa 0,0 l/m 0 min 0 min 21 W/m 6,4 km/h (2 Bft) 100,00 %
02.10.2021 08:34 12,3 C 11,7 C 11,1 C 95 % 1012,7 hPa 0,0 l/m 0 min 0 min 19 W/m 3,2 km/h (1 Bft) 100,00 %
02.10.2021 08:36 12,3 C 11,7 C 11,1 C 95 % 1012,6 hPa 0,0 l/m 0 min 0 min 14 W/m 3,2 km/h (1 Bft) 97,87 %
02.10.2021 08:38 12,4 C 11,7 C 11,1 C 95 % 1012,6 hPa 0,0 l/m 0 min 0 min 14 W/m 6,4 km/h (2 Bft) 95,74 %
02.10.2021 08:40 12,4 C 11,7 C 11,1 C 95 % 1012,6 hPa 0,0 l/m 0 min 0 min 17 W/m 6,4 km/h (2 Bft) 97,87 %
02.10.2021 08:42 12,4 C 12,2 C 11,1 C 95 % 1012,7 hPa 0,0 l/m 0 min 0 min 22 W/m 3,2 km/h (1 Bft) 97,87 %
02.10.2021 08:44 12,4 C 12,2 C 11,1 C 95 % 1012,6 hPa 0,0 l/m 0 min 0 min 23 W/m 3,2 km/h (1 Bft) 97,83 %
02.10.2021 08:45 12,4 C 12,2 C 11,1 C 95 % 1012,7 hPa 0,0 l/m 0 min 0 min 21 W/m 3,2 km/h (1 Bft) 95,74 %
02.10.2021 08:48 12,4 C 12,2 C 11,1 C 95 % 1012,7 hPa 0,0 l/m 0 min 0 min 20 W/m 3,2 km/h (1 Bft) 97,87 %
02.10.2021 08:50 12,4 C 12,2 C 11,1 C 95 % 1012,7 hPa 0,0 l/m 0 min 0 min 27 W/m 3,2 km/h (1 Bft) 97,87 %
02.10.2021 08:52 12,4 C 12,2 C 11,1 C 95 % 1012,7 hPa 0,0 l/m 0 min 0 min 30 W/m 6,4 km/h (2 Bft) 97,87 %
02.10.2021 08:54 12,5 C 12,2 C 11,1 C 95 % 1012,7 hPa 0,0 l/m 0 min 0 min 23 W/m 3,2 km/h (1 Bft) 97,83 %
02.10.2021 08:56 12,5 C 12,2 C 11,1 C 96 % 1012,7 hPa 0,0 l/m 0 min 0 min 23 W/m 6,4 km/h (2 Bft) 97,87 %
02.10.2021 08:58 12,5 C 12,2 C 11,1 C 96 % 1012,6 hPa 0,0 l/m 0 min 0 min 25 W/m 6,4 km/h (2 Bft) 97,87 %
02.10.2021 09:00 12,5 C 12,2 C 11,1 C 96 % 1012,7 hPa 0,0 l/m 0 min 0 min 32 W/m 6,4 km/h (2 Bft) 95,74 %
02.10.2021 09:02 12,5 C 12,2 C 11,1 C 96 % 1012,6 hPa 0,0 l/m 0 min 0 min 39 W/m 6,4 km/h (2 Bft) 97,87 %
02.10.2021 09:04 12,5 C 12,2 C 11,1 C 96 % 1012,6 hPa 0,0 l/m 0 min 0 min 46 W/m 6,4 km/h (2 Bft) 95,74 %
02.10.2021 09:06 12,5 C 12,2 C 11,1 C 96 % 1012,6 hPa 0,0 l/m 0 min 0 min 50 W/m 3,2 km/h (1 Bft) 100,00 %
02.10.2021 09:08 12,6 C 12,2 C 11,1 C 96 % 1012,6 hPa 0,0 l/m 0 min 0 min 50 W/m 6,4 km/h (2 Bft) 97,22 %
02.10.2021 09:10 12,6 C 12,2 C 11,1 C 96 % 1012,6 hPa 0,0 l/m 0 min 0 min 60 W/m 6,4 km/h (2 Bft) 100,00 %
02.10.2021 09:12 12,6 C 12,2 C 11,1 C 96 % 1012,6 hPa 0,0 l/m 0 min 0 min 70 W/m 3,2 km/h (1 Bft) 100,00 %
02.10.2021 09:14 12,6 C 12,8 C 11,1 C 96 % 1012,7 hPa 0,0 l/m 0 min 0 min 70 W/m 3,2 km/h (1 Bft) 97,87 %
02.10.2021 09:16 12,6 C 12,8 C 11,7 C 96 % 1012,7 hPa 0,0 l/m 0 min 0 min 72 W/m 3,2 km/h (1 Bft) 93,62 %
02.10.2021 09:18 12,7 C 12,8 C 11,7 C 96 % 1012,7 hPa 0,0 l/m 0 min 0 min 83 W/m 6,4 km/h (2 Bft) 97,87 %
02.10.2021 09:20 12,7 C 12,8 C 11,7 C 96 % 1012,6 hPa 0,0 l/m 0 min 0 min 92 W/m 9,7 km/h (2 Bft) 97,87 %
02.10.2021 09:22 12,8 C 12,8 C 11,7 C 96 % 1012,6 hPa 0,0 l/m 0 min 0 min 91 W/m 6,4 km/h (2 Bft) 95,65 %
02.10.2021 09:24 12,8 C 12,8 C 11,7 C 96 % 1012,7 hPa 0,0 l/m 0 min 0 min 98 W/m 6,4 km/h (2 Bft) 97,87 %
02.10.2021 09:26 12,9 C 12,8 C 11,7 C 96 % 1012,7 hPa 0,0 l/m 0 min 0 min 110 W/m 6,4 km/h (2 Bft) 97,87 %
02.10.2021 09:28 12,9 C 12,8 C 11,7 C 96 % 1012,6 hPa 0,0 l/m 0 min 0 min 113 W/m 6,4 km/h (2 Bft) 97,87 %
02.10.2021 09:30 12,9 C 13,3 C 11,7 C 96 % 1012,7 hPa 0,0 l/m 0 min 0 min 115 W/m 6,4 km/h (2 Bft) 97,87 %
02.10.2021 09:32 13,0 C 13,3 C 11,7 C 96 % 1012,6 hPa 0,0 l/m 0 min 0 min 113 W/m 3,2 km/h (1 Bft) 97,83 %
02.10.2021 09:34 13,0 C 13,3 C 11,7 C 96 % 1012,5 hPa 0,0 l/m 0 min 0 min 104 W/m 6,4 km/h (2 Bft) 95,74 %
02.10.2021 09:36 13,0 C 13,3 C 12,3 C 96 % 1012,5 hPa 0,0 l/m 0 min 0 min 100 W/m 6,4 km/h (2 Bft) 97,87 %
02.10.2021 09:38 13,1 C 13,3 C 12,3 C 96 % 1012,4 hPa 0,0 l/m 0 min 0 min 106 W/m 6,4 km/h (2 Bft) 96,36 %
02.10.2021 09:40 13,1 C 13,3 C 12,3 C 96 % 1012,4 hPa 0,0 l/m 0 min 0 min 105 W/m 6,4 km/h (2 Bft) 95,74 %
02.10.2021 09:42 13,1 C 13,3 C 11,7 C 96 % 1012,3 hPa 0,0 l/m 0 min 0 min 96 W/m 9,7 km/h (2 Bft) 97,83 %
02.10.2021 09:44 13,1 C 13,3 C 11,7 C 96 % 1012,3 hPa 0,0 l/m 0 min 0 min 86 W/m 12,9 km/h (3 Bft) 97,87 %
02.10.2021 09:46 13,2 C 13,3 C 11,7 C 96 % 1012,3 hPa 0,0 l/m 0 min 0 min 87 W/m 3,2 km/h (1 Bft) 97,87 %
02.10.2021 09:48 13,2 C 13,3 C 12,3 C 96 % 1012,3 hPa 0,0 l/m 0 min 0 min 98 W/m 3,2 km/h (1 Bft) 93,62 %
02.10.2021 09:50 13,2 C 13,3 C 12,3 C 96 % 1012,3 hPa 0,0 l/m 0 min 0 min 104 W/m 6,4 km/h (2 Bft) 97,87 %
02.10.2021 09:52 13,3 C 13,3 C 12,3 C 96 % 1012,3 hPa 0,0 l/m 0 min 0 min 115 W/m 9,7 km/h (2 Bft) 97,87 %
02.10.2021 09:54 13,3 C 13,3 C 12,3 C 96 % 1012,3 hPa 0,0 l/m 0 min 0 min 131 W/m 12,9 km/h (3 Bft) 97,83 %
02.10.2021 09:56 13,4 C 13,9 C 12,3 C 96 % 1012,2 hPa 0,0 l/m 0 min 0 min 130 W/m 6,4 km/h (2 Bft) 93,62 %
02.10.2021 09:58 13,4 C 13,9 C 12,3 C 96 % 1012,3 hPa 0,0 l/m 0 min 0 min 137 W/m 9,7 km/h (2 Bft) 97,87 %
02.10.2021 10:00 13,4 C 13,9 C 12,3 C 96 % 1012,3 hPa 0,0 l/m 0 min 0 min 128 W/m 9,7 km/h (2 Bft) 97,87 %
02.10.2021 10:02 13,5 C 13,9 C 12,3 C 96 % 1012,3 hPa 0,0 l/m 0 min 0 min 125 W/m 9,7 km/h (2 Bft) 97,92 %
02.10.2021 10:04 13,5 C 13,9 C 12,3 C 96 % 1012,3 hPa 0,0 l/m 0 min 0 min 114 W/m 6,4 km/h (2 Bft) 97,87 %
02.10.2021 10:06 13,5 C 13,9 C 12,3 C 96 % 1012,2 hPa 0,0 l/m 0 min 0 min 107 W/m 9,7 km/h (2 Bft) 97,83 %
02.10.2021 10:08 13,6 C 13,9 C 12,3 C 96 % 1012,2 hPa 0,0 l/m 0 min 0 min 110 W/m 16,1 km/h (3 Bft) 100,00 %
02.10.2021 10:10 13,6 C 13,9 C 12,3 C 96 % 1012,1 hPa 0,0 l/m 0 min 0 min 114 W/m 12,9 km/h (3 Bft) 100,00 %
02.10.2021 10:12 13,6 C 13,9 C 12,3 C 96 % 1012,1 hPa 0,0 l/m 0 min 0 min 104 W/m 6,4 km/h (2 Bft) 95,74 %
02.10.2021 10:14 13,6 C 13,9 C 12,3 C 95 % 1012,1 hPa 0,0 l/m 0 min 0 min 107 W/m 6,4 km/h (2 Bft) 95,74 %
02.10.2021 10:16 13,7 C 13,9 C 12,3 C 95 % 1012,1 hPa 0,0 l/m 0 min 0 min 112 W/m 12,9 km/h (3 Bft) 97,83 %
02.10.2021 10:18 13,8 C 13,9 C 12,3 C 95 % 1012,1 hPa 0,0 l/m 0 min 0 min 118 W/m 9,7 km/h (2 Bft) 97,87 %
02.10.2021 10:20 13,8 C 13,9 C 12,3 C 95 % 1012,1 hPa 0,0 l/m 0 min 0 min 130 W/m 9,7 km/h (2 Bft) 97,87 %
02.10.2021 10:22 13,8 C 13,9 C 12,3 C 95 % 1012,1 hPa 0,0 l/m 0 min 0 min 150 W/m 16,1 km/h (3 Bft) 97,87 %
02.10.2021 10:24 13,8 C 14,4 C 12,8 C 95 % 1012,0 hPa 0,0 l/m 0 min 0 min 185 W/m 6,4 km/h (2 Bft) 97,87 %
02.10.2021 10:26 13,9 C 14,4 C 12,8 C 95 % 1012,0 hPa 0,0 l/m 0 min 0 min 165 W/m 12,9 km/h (3 Bft) 97,87 %
02.10.2021 10:28 13,9 C 15,0 C 12,8 C 95 % 1011,9 hPa 0,0 l/m 2 min 0 min 214 W/m 6,4 km/h (2 Bft) 97,83 %
02.10.2021 10:30 14,0 C 15,6 C 13,4 C 95 % 1012,0 hPa 0,0 l/m 2 min 0 min 276 W/m 9,7 km/h (2 Bft) 95,74 %
02.10.2021 10:32 14,2 C 15,6 C 13,4 C 95 % 1011,9 hPa 0,0 l/m 2 min 0 min 246 W/m 12,9 km/h (3 Bft) 93,62 %
02.10.2021 10:34 14,2 C 15,6 C 13,4 C 95 % 1012,0 hPa 0,0 l/m 2 min 0 min 219 W/m 12,9 km/h (3 Bft) 95,74 %
02.10.2021 10:36 14,3 C 15,6 C 13,4 C 94 % 1011,9 hPa 0,0 l/m 0 min 0 min 192 W/m 9,7 km/h (2 Bft) 93,62 %
02.10.2021 10:38 14,4 C 15,6 C 13,4 C 94 % 1011,9 hPa 0,0 l/m 0 min 0 min 161 W/m 6,4 km/h (2 Bft) 95,74 %
02.10.2021 10:40 14,4 C 15,0 C 13,4 C 94 % 1011,9 hPa 0,0 l/m 0 min 0 min 137 W/m 12,9 km/h (3 Bft) 94,29 %
02.10.2021 10:42 14,4 C 15,0 C 13,4 C 93 % 1011,9 hPa 0,0 l/m 0 min 0 min 125 W/m 12,9 km/h (3 Bft) 95,65 %
02.10.2021 10:44 14,5 C 15,0 C 13,4 C 93 % 1011,8 hPa 0,0 l/m 0 min 0 min 124 W/m 6,4 km/h (2 Bft) 97,83 %
02.10.2021 10:46 14,5 C 15,0 C 13,4 C 93 % 1011,8 hPa 0,0 l/m 0 min 0 min 170 W/m 12,9 km/h (3 Bft) 95,74 %
02.10.2021 10:48 14,5 C 15,0 C 12,8 C 92 % 1011,8 hPa 0,0 l/m 0 min 0 min 199 W/m 9,7 km/h (2 Bft) 95,74 %
02.10.2021 10:50 14,5 C 15,0 C 13,4 C 92 % 1011,8 hPa 0,0 l/m 0 min 0 min 209 W/m 22,5 km/h (4 Bft) 95,74 %
02.10.2021 10:52 14,5 C 15,0 C 13,4 C 92 % 1011,7 hPa 0,0 l/m 0 min 0 min 189 W/m 19,3 km/h (3 Bft) 95,74 %
02.10.2021 10:54 14,6 C 15,0 C 13,4 C 91 % 1011,6 hPa 0,0 l/m 0 min 0 min 175 W/m 12,9 km/h (3 Bft) 95,65 %
02.10.2021 10:56 14,6 C 15,0 C 13,4 C 91 % 1011,6 hPa 0,0 l/m 0 min 0 min 154 W/m 16,1 km/h (3 Bft) 95,74 %
02.10.2021 10:58 14,6 C 15,0 C 13,4 C 90 % 1011,6 hPa 0,0 l/m 0 min 0 min 161 W/m 12,9 km/h (3 Bft) 93,62 %
02.10.2021 11:00 14,7 C 15,0 C 13,4 C 90 % 1011,6 hPa 0,0 l/m 0 min 0 min 154 W/m 9,7 km/h (2 Bft) 95,74 %
02.10.2021 11:02 14,7 C 15,0 C 13,4 C 90 % 1011,7 hPa 0,0 l/m 0 min 0 min 143 W/m 12,9 km/h (3 Bft) 95,74 %
02.10.2021 11:04 14,8 C 15,0 C 13,9 C 90 % 1011,6 hPa 0,0 l/m 0 min 0 min 211 W/m 6,4 km/h (2 Bft) 97,92 %
02.10.2021 11:06 14,8 C 15,0 C 13,9 C 90 % 1011,6 hPa 0,0 l/m 0 min 0 min 218 W/m 6,4 km/h (2 Bft) 97,83 %
02.10.2021 11:08 14,9 C 15,0 C 13,9 C 89 % 1011,6 hPa 0,0 l/m 0 min 0 min 200 W/m 6,4 km/h (2 Bft) 100,00 %
02.10.2021 11:10 14,9 C 15,0 C 13,9 C 89 % 1011,5 hPa 0,0 l/m 0 min 0 min 215 W/m 9,7 km/h (2 Bft) 100,00 %
02.10.2021 11:12 14,9 C 15,0 C 13,9 C 89 % 1011,4 hPa 0,0 l/m 0 min 0 min 223 W/m 12,9 km/h (3 Bft) 100,00 %
02.10.2021 11:14 15,0 C 15,6 C 13,9 C 89 % 1011,4 hPa 0,0 l/m 0 min 0 min 198 W/m 9,7 km/h (2 Bft) 100,00 %
02.10.2021 11:16 15,0 C 15,6 C 13,9 C 89 % 1011,3 hPa 0,0 l/m 0 min 0 min 182 W/m 9,7 km/h (2 Bft) 100,00 %
02.10.2021 11:18 15,0 C 15,0 C 13,9 C 89 % 1011,2 hPa 0,0 l/m 0 min 0 min 187 W/m 12,9 km/h (3 Bft) 100,00 %
02.10.2021 11:20 15,1 C 15,6 C 14,5 C 89 % 1011,2 hPa 0,0 l/m 2 min 0 min 245 W/m 6,4 km/h (2 Bft) 100,00 %
02.10.2021 11:22 15,1 C 16,1 C 15,0 C 88 % 1011,1 hPa 0,0 l/m 2 min 0 min 296 W/m 19,3 km/h (3 Bft) 100,00 %
02.10.2021 11:24 15,2 C 16,1 C 15,0 C 88 % 1011,1 hPa 0,0 l/m 2 min 0 min 291 W/m 12,9 km/h (3 Bft) 100,00 %
02.10.2021 11:26 15,3 C 16,1 C 15,0 C 88 % 1011,1 hPa 0,0 l/m 2 min 0 min 255 W/m 9,7 km/h (2 Bft) 100,00 %
02.10.2021 11:28 15,3 C 16,1 C 15,0 C 88 % 1011,1 hPa 0,0 l/m 0 min 0 min 227 W/m 12,9 km/h (3 Bft) 100,00 %
02.10.2021 11:30 15,4 C 15,6 C 14,5 C 88 % 1011,1 hPa 0,0 l/m 0 min 0 min 161 W/m 12,9 km/h (3 Bft) 100,00 %
02.10.2021 11:32 15,4 C 15,6 C 14,5 C 87 % 1011,1 hPa 0,0 l/m 0 min 0 min 114 W/m 9,7 km/h (2 Bft) 100,00 %
02.10.2021 11:34 15,4 C 15,0 C 14,5 C 87 % 1011,1 hPa 0,0 l/m 0 min 0 min 83 W/m 12,9 km/h (3 Bft) 100,00 %
02.10.2021 11:36 15,4 C 15,0 C 13,9 C 87 % 1011,1 hPa 0,0 l/m 0 min 0 min 81 W/m 16,1 km/h (3 Bft) 100,00 %
02.10.2021 11:38 15,3 C 15,0 C 13,9 C 87 % 1011,1 hPa 0,0 l/m 0 min 0 min 90 W/m 12,9 km/h (3 Bft) 100,00 %
02.10.2021 11:40 15,3 C 15,0 C 13,9 C 86 % 1011,1 hPa 0,0 l/m 0 min 0 min 83 W/m 12,9 km/h (3 Bft) 100,00 %
02.10.2021 11:42 15,3 C 15,0 C 13,9 C 86 % 1011,1 hPa 0,0 l/m 0 min 0 min 123 W/m 16,1 km/h (3 Bft) 97,87 %
02.10.2021 11:44 15,3 C 15,0 C 13,9 C 86 % 1011,0 hPa 0,0 l/m 0 min 0 min 117 W/m 6,4 km/h (2 Bft) 97,87 %
02.10.2021 11:46 15,3 C 15,0 C 13,9 C 87 % 1011,0 hPa 0,0 l/m 0 min 0 min 97 W/m 6,4 km/h (2 Bft) 100,00 %
02.10.2021 11:48 15,3 C 15,0 C 13,9 C 87 % 1011,1 hPa 0,0 l/m 0 min 0 min 116 W/m 12,9 km/h (3 Bft) 100,00 %
02.10.2021 11:50 15,3 C 15,0 C 13,9 C 87 % 1011,1 hPa 0,0 l/m 0 min 0 min 129 W/m 6,4 km/h (2 Bft) 100,00 %
02.10.2021 11:52 15,3 C 15,0 C 13,9 C 87 % 1011,0 hPa 0,0 l/m 0 min 0 min 135 W/m 6,4 km/h (2 Bft) 100,00 %
02.10.2021 11:54 15,3 C 15,0 C 13,9 C 87 % 1011,1 hPa 0,0 l/m 0 min 0 min 126 W/m 3,2 km/h (1 Bft) 100,00 %
02.10.2021 11:56 15,3 C 15,0 C 13,9 C 87 % 1011,0 hPa 0,0 l/m 0 min 0 min 138 W/m 12,9 km/h (3 Bft) 100,00 %
02.10.2021 11:58 15,4 C 15,0 C 13,9 C 87 % 1011,0 hPa 0,0 l/m 0 min 0 min 189 W/m 6,4 km/h (2 Bft) 100,00 %
02.10.2021 12:00 15,4 C 15,6 C 13,9 C 87 % 1011,1 hPa 0,0 l/m 0 min 0 min 197 W/m 9,7 km/h (2 Bft) 97,87 %
02.10.2021 12:02 15,4 C 15,6 C 13,9 C 87 % 1011,0 hPa 0,0 l/m 0 min 0 min 166 W/m 12,9 km/h (3 Bft) 97,87 %
02.10.2021 12:04 15,4 C 15,6 C 13,9 C 87 % 1011,0 hPa 0,0 l/m 0 min 0 min 156 W/m 12,9 km/h (3 Bft) 97,87 %
02.10.2021 12:08 15,5 C 15,0 C 13,9 C 87 % 1010,9 hPa 0,0 l/m 0 min 0 min 143 W/m 12,9 km/h (3 Bft) 97,09 %
02.10.2021 12:10 15,5 C 15,6 C 13,9 C 87 % 1010,9 hPa 0,0 l/m 0 min 0 min 189 W/m 6,4 km/h (2 Bft) 97,87 %
02.10.2021 12:12 15,5 C 15,6 C 14,5 C 87 % 1010,9 hPa 0,0 l/m 0 min 0 min 231 W/m 9,7 km/h (2 Bft) 97,83 %
02.10.2021 12:14 15,5 C 15,6 C 14,5 C 87 % 1010,8 hPa 0,0 l/m 0 min 0 min 225 W/m 9,7 km/h (2 Bft) 97,87 %
02.10.2021 12:16 15,6 C 15,6 C 14,5 C 88 % 1010,8 hPa 0,0 l/m 0 min 0 min 211 W/m 6,4 km/h (2 Bft) 97,87 %
02.10.2021 12:18 15,6 C 15,6 C 14,5 C 88 % 1010,8 hPa 0,0 l/m 0 min 0 min 222 W/m 6,4 km/h (2 Bft) 97,87 %
02.10.2021 12:20 15,7 C 15,6 C 14,5 C 88 % 1010,7 hPa 0,0 l/m 0 min 0 min 213 W/m 12,9 km/h (3 Bft) 95,74 %
02.10.2021 12:22 15,7 C 15,6 C 14,5 C 88 % 1010,7 hPa 0,0 l/m 0 min 0 min 221 W/m 12,9 km/h (3 Bft) 97,87 %
02.10.2021 12:24 15,7 C 15,6 C 14,5 C 88 % 1010,6 hPa 0,0 l/m 0 min 0 min 237 W/m 9,7 km/h (2 Bft) 95,65 %
02.10.2021 12:26 15,8 C 16,1 C 14,5 C 88 % 1010,5 hPa 0,0 l/m 0 min 0 min 259 W/m 9,7 km/h (2 Bft) 97,87 %
02.10.2021 12:28 15,8 C 16,1 C 14,5 C 88 % 1010,5 hPa 0,0 l/m 0 min 0 min 266 W/m 16,1 km/h (3 Bft) 97,87 %
02.10.2021 12:30 15,8 C 16,1 C 14,5 C 88 % 1010,5 hPa 0,0 l/m 0 min 0 min 263 W/m 12,9 km/h (3 Bft) 95,74 %
02.10.2021 12:32 15,9 C 16,1 C 14,5 C 88 % 1010,5 hPa 0,0 l/m 0 min 0 min 241 W/m 16,1 km/h (3 Bft) 97,87 %
02.10.2021 12:34 15,9 C 16,1 C 14,5 C 88 % 1010,5 hPa 0,0 l/m 0 min 0 min 200 W/m 9,7 km/h (2 Bft) 97,87 %
02.10.2021 12:36 15,9 C 15,6 C 14,5 C 88 % 1010,4 hPa 0,0 l/m 0 min 0 min 161 W/m 12,9 km/h (3 Bft) 100,00 %
02.10.2021 12:38 15,9 C 15,6 C 14,5 C 87 % 1010,4 hPa 0,0 l/m 0 min 0 min 132 W/m 6,4 km/h (2 Bft) 97,87 %
02.10.2021 12:40 15,9 C 15,6 C 14,5 C 87 % 1010,3 hPa 0,0 l/m 0 min 0 min 133 W/m 6,4 km/h (2 Bft) 95,74 %
02.10.2021 12:42 15,9 C 15,6 C 14,5 C 87 % 1010,3 hPa 0,0 l/m 0 min 0 min 163 W/m 12,9 km/h (3 Bft) 97,87 %
02.10.2021 12:44 15,9 C 15,6 C 14,5 C 87 % 1010,2 hPa 0,0 l/m 0 min 0 min 196 W/m 12,9 km/h (3 Bft) 97,87 %
02.10.2021 12:46 16,0 C 16,1 C 14,5 C 87 % 1010,2 hPa 0,0 l/m 0 min 0 min 277 W/m 12,9 km/h (3 Bft) 95,74 %
02.10.2021 12:48 16,0 C 16,1 C 15,0 C 87 % 1010,2 hPa 0,0 l/m 2 min 0 min 304 W/m 12,9 km/h (3 Bft) 97,83 %
02.10.2021 12:50 16,0 C 16,1 C 15,0 C 87 % 1010,1 hPa 0,0 l/m 0 min 0 min 278 W/m 16,1 km/h (3 Bft) 93,62 %
02.10.2021 12:52 16,1 C 16,1 C 15,0 C 87 % 1010,1 hPa 0,0 l/m 0 min 0 min 259 W/m 9,7 km/h (2 Bft) 97,87 %
02.10.2021 12:54 16,1 C 16,1 C 15,0 C 87 % 1010,1 hPa 0,0 l/m 0 min 0 min 225 W/m 9,7 km/h (2 Bft) 97,87 %
02.10.2021 12:56 16,1 C 16,1 C 15,0 C 87 % 1010,0 hPa 0,0 l/m 0 min 0 min 181 W/m 12,9 km/h (3 Bft) 95,74 %
02.10.2021 12:58 16,2 C 16,1 C 15,0 C 87 % 1010,0 hPa 0,0 l/m 0 min 0 min 148 W/m 12,9 km/h (3 Bft) 97,83 %
02.10.2021 13:00 16,2 C 16,1 C 15,0 C 87 % 1010,0 hPa 0,0 l/m 0 min 0 min 149 W/m 12,9 km/h (3 Bft) 95,74 %
02.10.2021 13:02 16,3 C 16,1 C 14,5 C 87 % 1010,0 hPa 0,0 l/m 0 min 0 min 138 W/m 16,1 km/h (3 Bft) 97,92 %
02.10.2021 13:04 16,3 C 16,1 C 14,5 C 87 % 1009,9 hPa 0,0 l/m 0 min 0 min 165 W/m 6,4 km/h (2 Bft) 97,87 %
02.10.2021 13:06 16,3 C 16,1 C 15,0 C 87 % 1009,9 hPa 0,0 l/m 0 min 0 min 208 W/m 6,4 km/h (2 Bft) 95,74 %
02.10.2021 13:08 16,3 C 16,1 C 15,0 C 87 % 1009,8 hPa 0,0 l/m 0 min 0 min 222 W/m 12,9 km/h (3 Bft) 95,74 %
02.10.2021 13:10 16,4 C 16,7 C 15,0 C 87 % 1009,7 hPa 0,0 l/m 0 min 0 min 273 W/m 6,4 km/h (2 Bft) 95,65 %
02.10.2021 13:12 16,4 C 17,2 C 15,0 C 87 % 1009,6 hPa 0,0 l/m 2 min 0 min 325 W/m 6,4 km/h (2 Bft) 95,74 %
02.10.2021 13:14 16,5 C 17,2 C 15,6 C 87 % 1009,7 hPa 0,0 l/m 2 min 0 min 322 W/m 6,4 km/h (2 Bft) 97,87 %
02.10.2021 13:16 16,6 C 17,8 C 15,6 C 87 % 1009,6 hPa 0,0 l/m 2 min 0 min 318 W/m 12,9 km/h (3 Bft) 97,87 %
02.10.2021 13:18 16,7 C 17,8 C 15,6 C 87 % 1009,6 hPa 0,0 l/m 2 min 0 min 304 W/m 16,1 km/h (3 Bft) 95,74 %
02.10.2021 13:20 16,8 C 17,8 C 15,6 C 86 % 1009,6 hPa 0,0 l/m 2 min 0 min 323 W/m 12,9 km/h (3 Bft) 97,87 %
02.10.2021 13:22 16,9 C 17,8 C 15,6 C 85 % 1009,5 hPa 0,0 l/m 2 min 0 min 340 W/m 22,5 km/h (4 Bft) 97,83 %
02.10.2021 13:24 16,9 C 18,3 C 16,1 C 84 % 1009,5 hPa 0,0 l/m 2 min 0 min 376 W/m 16,1 km/h (3 Bft) 97,87 %
02.10.2021 13:26 17,1 C 18,3 C 16,1 C 83 % 1009,5 hPa 0,0 l/m 2 min 0 min 397 W/m 16,1 km/h (3 Bft) 95,74 %
02.10.2021 13:28 17,2 C 18,3 C 16,1 C 82 % 1009,6 hPa 0,0 l/m 2 min 0 min 320 W/m 12,9 km/h (3 Bft) 97,87 %
02.10.2021 13:30 17,3 C 18,3 C 16,1 C 82 % 1009,6 hPa 0,0 l/m 0 min 0 min 263 W/m 16,1 km/h (3 Bft) 97,87 %
02.10.2021 13:32 17,4 C 17,8 C 16,1 C 81 % 1009,6 hPa 0,0 l/m 0 min 0 min 232 W/m 19,3 km/h (3 Bft) 97,92 %
02.10.2021 13:34 17,4 C 17,8 C 16,1 C 81 % 1009,4 hPa 0,0 l/m 0 min 0 min 261 W/m 16,1 km/h (3 Bft) 97,83 %
02.10.2021 13:36 17,5 C 18,3 C 16,1 C 80 % 1009,4 hPa 0,0 l/m 2 min 0 min 311 W/m 12,9 km/h (3 Bft) 97,87 %
02.10.2021 13:38 17,6 C 18,3 C 16,1 C 80 % 1009,3 hPa 0,0 l/m 2 min 0 min 325 W/m 16,1 km/h (3 Bft) 97,30 %
02.10.2021 13:40 17,7 C 18,3 C 16,1 C 80 % 1009,3 hPa 0,0 l/m 2 min 0 min 298 W/m 12,9 km/h (3 Bft) 97,87 %
02.10.2021 13:42 17,8 C 18,3 C 16,1 C 79 % 1009,2 hPa 0,0 l/m 2 min 0 min 322 W/m 19,3 km/h (3 Bft) 95,74 %
02.10.2021 13:44 17,9 C 18,9 C 16,7 C 79 % 1009,1 hPa 0,0 l/m 2 min 0 min 575 W/m 12,9 km/h (3 Bft) 97,87 %
02.10.2021 13:46 18,0 C 18,9 C 16,7 C 79 % 1009,1 hPa 0,0 l/m 2 min 0 min 636 W/m 22,5 km/h (4 Bft) 97,87 %
02.10.2021 13:48 18,0 C 18,9 C 16,1 C 78 % 1009,1 hPa 0,0 l/m 2 min 0 min 557 W/m 19,3 km/h (3 Bft) 97,83 %
02.10.2021 13:50 18,1 C 18,3 C 16,1 C 77 % 1009,1 hPa 0,0 l/m 0 min 0 min 198 W/m 19,3 km/h (3 Bft) 97,87 %
02.10.2021 13:52 18,0 C 18,3 C 16,1 C 76 % 1009,0 hPa 0,0 l/m 0 min 0 min 211 W/m 19,3 km/h (3 Bft) 97,87 %
02.10.2021 13:54 18,0 C 17,8 C 16,1 C 76 % 1008,9 hPa 0,0 l/m 0 min 0 min 212 W/m 29,0 km/h (5 Bft) 93,62 %
02.10.2021 13:56 18,0 C 17,8 C 16,1 C 76 % 1008,8 hPa 0,0 l/m 0 min 0 min 210 W/m 19,3 km/h (3 Bft) 95,74 %
02.10.2021 13:58 18,0 C 17,8 C 16,1 C 76 % 1008,8 hPa 0,0 l/m 0 min 0 min 199 W/m 12,9 km/h (3 Bft) 97,87 %
02.10.2021 14:00 18,0 C 17,8 C 16,1 C 77 % 1008,7 hPa 0,0 l/m 0 min 0 min 177 W/m 9,7 km/h (2 Bft) 97,83 %
02.10.2021 14:02 18,0 C 17,8 C 16,1 C 77 % 1008,7 hPa 0,0 l/m 0 min 0 min 164 W/m 16,1 km/h (3 Bft) 97,87 %
02.10.2021 14:04 17,9 C 17,2 C 15,6 C 77 % 1008,6 hPa 0,0 l/m 0 min 0 min 156 W/m 16,1 km/h (3 Bft) 97,92 %
02.10.2021 14:06 17,9 C 17,2 C 15,6 C 77 % 1008,7 hPa 0,0 l/m 0 min 0 min 171 W/m 12,9 km/h (3 Bft) 100,00 %
02.10.2021 14:08 17,9 C 17,2 C 15,6 C 77 % 1008,6 hPa 0,0 l/m 0 min 0 min 144 W/m 25,7 km/h (4 Bft) 97,87 %
02.10.2021 14:10 17,9 C 17,2 C 15,6 C 77 % 1008,6 hPa 0,0 l/m 0 min 0 min 125 W/m 19,3 km/h (3 Bft) 100,00 %
02.10.2021 14:12 17,8 C 17,2 C 15,6 C 77 % 1008,6 hPa 0,0 l/m 0 min 0 min 119 W/m 25,7 km/h (4 Bft) 100,00 %
02.10.2021 14:14 17,8 C 17,2 C 15,6 C 77 % 1008,5 hPa 0,0 l/m 0 min 0 min 114 W/m 25,7 km/h (4 Bft) 97,87 %
02.10.2021 14:16 17,8 C 17,2 C 15,6 C 77 % 1008,5 hPa 0,0 l/m 0 min 0 min 112 W/m 9,7 km/h (2 Bft) 100,00 %
02.10.2021 14:18 17,8 C 17,2 C 15,6 C 77 % 1008,5 hPa 0,0 l/m 0 min 0 min 170 W/m 16,1 km/h (3 Bft) 100,00 %
02.10.2021 14:20 17,8 C 17,8 C 15,6 C 77 % 1008,5 hPa 0,0 l/m 0 min 0 min 221 W/m 16,1 km/h (3 Bft) 100,00 %
02.10.2021 14:22 17,8 C 17,8 C 15,6 C 77 % 1008,4 hPa 0,0 l/m 0 min 0 min 198 W/m 16,1 km/h (3 Bft) 95,74 %
02.10.2021 14:24 17,8 C 17,8 C 15,6 C 77 % 1008,3 hPa 0,0 l/m 0 min 0 min 161 W/m 32,2 km/h (5 Bft) 97,87 %
02.10.2021 14:26 17,8 C 17,8 C 15,6 C 77 % 1008,4 hPa 0,0 l/m 0 min 0 min 155 W/m 12,9 km/h (3 Bft) 100,00 %
02.10.2021 14:28 17,8 C 17,8 C 15,6 C 76 % 1008,3 hPa 0,0 l/m 0 min 0 min 148 W/m 16,1 km/h (3 Bft) 100,00 %
02.10.2021 14:30 17,8 C 17,2 C 15,6 C 76 % 1008,3 hPa 0,0 l/m 0 min 0 min 133 W/m 12,9 km/h (3 Bft) 100,00 %
02.10.2021 14:32 17,8 C 17,2 C 15,6 C 76 % 1008,1 hPa 0,0 l/m 0 min 0 min 99 W/m 12,9 km/h (3 Bft) 97,83 %
02.10.2021 14:34 17,8 C 17,2 C 15,6 C 76 % 1008,1 hPa 0,0 l/m 0 min 0 min 87 W/m 16,1 km/h (3 Bft) 95,74 %
02.10.2021 14:36 17,8 C 17,2 C 15,6 C 76 % 1008,1 hPa 0,0 l/m 0 min 0 min 103 W/m 16,1 km/h (3 Bft) 97,87 %
02.10.2021 14:38 17,8 C 17,2 C 15,6 C 76 % 1008,0 hPa 0,0 l/m 0 min 0 min 98 W/m 22,5 km/h (4 Bft) 98,00 %
02.10.2021 14:40 17,8 C 17,2 C 15,6 C 76 % 1008,0 hPa 0,0 l/m 0 min 0 min 78 W/m 16,1 km/h (3 Bft) 95,74 %
02.10.2021 14:42 17,8 C 17,2 C 15,6 C 76 % 1008,0 hPa 0,0 l/m 0 min 0 min 93 W/m 9,7 km/h (2 Bft) 97,83 %
02.10.2021 14:44 17,7 C 17,2 C 15,6 C 76 % 1007,8 hPa 0,0 l/m 0 min 0 min 129 W/m 16,1 km/h (3 Bft) 97,87 %
02.10.2021 14:46 17,7 C 17,2 C 15,6 C 76 % 1007,9 hPa 0,0 l/m 0 min 0 min 164 W/m 12,9 km/h (3 Bft) 97,87 %
02.10.2021 14:48 17,8 C 17,2 C 15,6 C 77 % 1007,8 hPa 0,0 l/m 0 min 0 min 160 W/m 12,9 km/h (3 Bft) 95,74 %
02.10.2021 14:50 17,8 C 17,2 C 15,6 C 76 % 1007,9 hPa 0,0 l/m 0 min 0 min 175 W/m 16,1 km/h (3 Bft) 95,74 %
02.10.2021 14:52 17,8 C 17,8 C 15,6 C 76 % 1007,8 hPa 0,0 l/m 0 min 0 min 243 W/m 12,9 km/h (3 Bft) 93,62 %
02.10.2021 14:54 17,8 C 17,8 C 15,6 C 76 % 1007,8 hPa 0,2 l/m 0 min 0 min 248 W/m 22,5 km/h (4 Bft) 95,65 %
02.10.2021 14:56 17,8 C 17,8 C 15,6 C 76 % 1007,8 hPa 0,0 l/m 0 min 0 min 257 W/m 16,1 km/h (3 Bft) 93,62 %
02.10.2021 14:58 17,9 C 17,8 C 15,6 C 76 % 1007,7 hPa 0,0 l/m 0 min 0 min 247 W/m 12,9 km/h (3 Bft) 93,62 %
02.10.2021 15:00 17,9 C 17,8 C 15,6 C 76 % 1007,7 hPa 0,0 l/m 0 min 0 min 230 W/m 12,9 km/h (3 Bft) 93,62 %
02.10.2021 15:02 17,9 C 17,8 C 15,6 C 76 % 1007,7 hPa 0,0 l/m 0 min 0 min 211 W/m 12,9 km/h (3 Bft) 93,75 %
02.10.2021 15:04 17,9 C 17,8 C 15,6 C 76 % 1007,7 hPa 0,0 l/m 0 min 0 min 183 W/m 9,7 km/h (2 Bft) 93,62 %
02.10.2021 15:06 18,0 C 17,8 C 15,6 C 76 % 1007,7 hPa 0,0 l/m 0 min 0 min 179 W/m 12,9 km/h (3 Bft) 93,48 %
02.10.2021 15:08 18,0 C 17,8 C 15,6 C 76 % 1007,7 hPa 0,0 l/m 0 min 0 min 198 W/m 12,9 km/h (3 Bft) 95,74 %
02.10.2021 15:10 18,0 C 17,8 C 15,6 C 76 % 1007,7 hPa 0,0 l/m 0 min 0 min 218 W/m 16,1 km/h (3 Bft) 94,44 %
02.10.2021 15:12 18,0 C 17,8 C 15,6 C 76 % 1007,6 hPa 0,0 l/m 0 min 0 min 235 W/m 25,7 km/h (4 Bft) 97,87 %
02.10.2021 15:14 18,0 C 17,8 C 16,1 C 76 % 1007,6 hPa 0,0 l/m 2 min 0 min 256 W/m 19,3 km/h (3 Bft) 95,74 %
02.10.2021 15:16 18,0 C 18,3 C 16,1 C 76 % 1007,5 hPa 0,0 l/m 2 min 0 min 311 W/m 19,3 km/h (3 Bft) 97,87 %
02.10.2021 15:18 18,1 C 18,3 C 16,1 C 76 % 1007,4 hPa 0,0 l/m 2 min 0 min 323 W/m 16,1 km/h (3 Bft) 97,87 %
02.10.2021 15:20 18,1 C 18,3 C 16,1 C 76 % 1007,4 hPa 0,0 l/m 0 min 0 min 243 W/m 29,0 km/h (5 Bft) 93,48 %
02.10.2021 15:22 18,1 C 18,3 C 16,1 C 75 % 1007,4 hPa 0,0 l/m 0 min 0 min 194 W/m 12,9 km/h (3 Bft) 97,87 %
02.10.2021 15:24 18,1 C 17,8 C 15,6 C 75 % 1007,3 hPa 0,0 l/m 0 min 0 min 172 W/m 12,9 km/h (3 Bft) 97,87 %
02.10.2021 15:26 18,1 C 17,8 C 15,6 C 75 % 1007,3 hPa 0,0 l/m 0 min 0 min 181 W/m 16,1 km/h (3 Bft) 97,87 %
02.10.2021 15:28 18,1 C 17,8 C 15,6 C 75 % 1007,3 hPa 0,0 l/m 0 min 0 min 225 W/m 12,9 km/h (3 Bft) 97,87 %
02.10.2021 15:30 18,2 C 18,3 C 16,1 C 76 % 1007,2 hPa 0,0 l/m 0 min 0 min 207 W/m 6,4 km/h (2 Bft) 100,00 %
02.10.2021 15:32 18,2 C 17,8 C 15,6 C 76 % 1007,2 hPa 0,0 l/m 0 min 0 min 167 W/m 12,9 km/h (3 Bft) 100,00 %
02.10.2021 15:34 18,2 C 17,8 C 15,6 C 76 % 1007,2 hPa 0,0 l/m 0 min 0 min 137 W/m 12,9 km/h (3 Bft) 100,00 %
02.10.2021 15:36 18,2 C 17,8 C 15,6 C 76 % 1007,2 hPa 0,0 l/m 0 min 0 min 121 W/m 12,9 km/h (3 Bft) 100,00 %
02.10.2021 15:38 18,1 C 17,8 C 15,6 C 77 % 1007,2 hPa 0,0 l/m 0 min 0 min 136 W/m 16,1 km/h (3 Bft) 100,00 %
02.10.2021 15:40 18,1 C 17,8 C 15,6 C 77 % 1007,2 hPa 0,0 l/m 0 min 0 min 151 W/m 22,5 km/h (4 Bft) 100,00 %
02.10.2021 15:42 18,1 C 17,8 C 15,6 C 75 % 1007,1 hPa 0,0 l/m 0 min 0 min 187 W/m 12,9 km/h (3 Bft) 97,87 %
02.10.2021 15:44 18,1 C 17,8 C 15,6 C 74 % 1007,1 hPa 0,0 l/m 0 min 0 min 202 W/m 16,1 km/h (3 Bft) 100,00 %
02.10.2021 15:46 18,1 C 17,8 C 15,6 C 72 % 1007,1 hPa 0,0 l/m 0 min 0 min 171 W/m 16,1 km/h (3 Bft) 100,00 %
02.10.2021 15:48 18,1 C 17,8 C 15,6 C 72 % 1007,0 hPa 0,0 l/m 0 min 0 min 135 W/m 19,3 km/h (3 Bft) 97,87 %
02.10.2021 15:50 18,0 C 17,8 C 15,6 C 72 % 1007,1 hPa 0,0 l/m 0 min 0 min 117 W/m 16,1 km/h (3 Bft) 97,87 %
02.10.2021 15:52 18,1 C 17,8 C 15,6 C 72 % 1007,0 hPa 0,0 l/m 0 min 0 min 141 W/m 12,9 km/h (3 Bft) 100,00 %
02.10.2021 15:54 18,1 C 17,8 C 15,6 C 72 % 1007,0 hPa 0,0 l/m 0 min 0 min 138 W/m 12,9 km/h (3 Bft) 100,00 %
02.10.2021 15:56 18,1 C 17,8 C 15,6 C 72 % 1007,0 hPa 0,0 l/m 0 min 0 min 143 W/m 19,3 km/h (3 Bft) 100,00 %
02.10.2021 15:58 18,1 C 17,8 C 15,6 C 72 % 1007,0 hPa 0,0 l/m 0 min 0 min 175 W/m 12,9 km/h (3 Bft) 100,00 %
02.10.2021 16:00 18,1 C 17,8 C 15,6 C 72 % 1006,9 hPa 0,0 l/m 0 min 0 min 211 W/m 19,3 km/h (3 Bft) 97,87 %
02.10.2021 16:02 18,1 C 17,8 C 15,6 C 72 % 1006,9 hPa 0,0 l/m 2 min 0 min 214 W/m 12,9 km/h (3 Bft) 100,00 %
02.10.2021 16:04 18,1 C 17,8 C 15,6 C 72 % 1006,9 hPa 0,0 l/m 0 min 0 min 210 W/m 12,9 km/h (3 Bft) 100,00 %
02.10.2021 16:06 18,1 C 17,8 C 15,6 C 72 % 1006,9 hPa 0,0 l/m 0 min 0 min 205 W/m 22,5 km/h (4 Bft) 97,87 %
02.10.2021 16:08 18,1 C 17,8 C 15,6 C 72 % 1006,9 hPa 0,0 l/m 0 min 0 min 187 W/m 16,1 km/h (3 Bft) 100,00 %
02.10.2021 16:10 18,1 C 17,8 C 15,6 C 69 % 1006,9 hPa 0,0 l/m 0 min 0 min 171 W/m 38,6 km/h (5 Bft) 97,87 %
02.10.2021 16:12 18,1 C 17,8 C 15,6 C 68 % 1006,8 hPa 0,0 l/m 0 min 0 min 159 W/m 35,4 km/h (5 Bft) 100,00 %
02.10.2021 16:14 18,1 C 17,8 C 15,6 C 68 % 1006,8 hPa 0,0 l/m 0 min 0 min 152 W/m 19,3 km/h (3 Bft) 97,87 %
02.10.2021 16:16 18,1 C 17,8 C 15,6 C 68 % 1006,7 hPa 0,0 l/m 0 min 0 min 149 W/m 19,3 km/h (3 Bft) 100,00 %
02.10.2021 16:18 18,1 C 17,8 C 15,6 C 68 % 1006,8 hPa 0,0 l/m 0 min 0 min 149 W/m 16,1 km/h (3 Bft) 100,00 %
02.10.2021 16:20 18,1 C 17,8 C 15,6 C 68 % 1006,7 hPa 0,0 l/m 0 min 0 min 151 W/m 12,9 km/h (3 Bft) 100,00 %
02.10.2021 16:22 18,1 C 17,8 C 15,6 C 68 % 1006,8 hPa 0,0 l/m 0 min 0 min 146 W/m 25,7 km/h (4 Bft) 97,87 %
02.10.2021 16:24 18,0 C 17,8 C 15,6 C 68 % 1006,7 hPa 0,0 l/m 0 min 0 min 139 W/m 29,0 km/h (5 Bft) 97,87 %
02.10.2021 16:26 18,0 C 17,8 C 15,6 C 69 % 1006,6 hPa 0,0 l/m 0 min 0 min 138 W/m 16,1 km/h (3 Bft) 95,74 %
02.10.2021 16:28 18,0 C 17,8 C 15,6 C 68 % 1006,6 hPa 0,0 l/m 0 min 0 min 120 W/m 19,3 km/h (3 Bft) 95,74 %
02.10.2021 16:30 18,0 C 17,2 C 15,6 C 69 % 1006,6 hPa 0,0 l/m 0 min 0 min 105 W/m 22,5 km/h (4 Bft) 97,83 %
02.10.2021 16:32 18,0 C 17,2 C 15,6 C 69 % 1006,6 hPa 0,0 l/m 0 min 0 min 104 W/m 22,5 km/h (4 Bft) 97,87 %
02.10.2021 16:34 18,0 C 17,2 C 15,6 C 69 % 1006,6 hPa 0,0 l/m 0 min 0 min 93 W/m 19,3 km/h (3 Bft) 97,87 %
02.10.2021 16:36 18,0 C 17,2 C 15,6 C 69 % 1006,6 hPa 0,0 l/m 0 min 0 min 86 W/m 12,9 km/h (3 Bft) 97,87 %
02.10.2021 16:38 17,9 C 17,2 C 15,6 C 70 % 1006,6 hPa 0,0 l/m 0 min 0 min 87 W/m 9,7 km/h (2 Bft) 95,74 %
02.10.2021 16:40 17,9 C 17,2 C 15,0 C 70 % 1006,5 hPa 0,0 l/m 0 min 0 min 82 W/m 12,9 km/h (3 Bft) 97,92 %
02.10.2021 16:42 17,9 C 17,2 C 15,0 C 70 % 1006,5 hPa 0,0 l/m 0 min 0 min 77 W/m 12,9 km/h (3 Bft) 97,83 %
02.10.2021 16:44 17,9 C 17,2 C 15,0 C 70 % 1006,5 hPa 0,0 l/m 0 min 0 min 86 W/m 19,3 km/h (3 Bft) 97,87 %
02.10.2021 16:46 17,8 C 17,2 C 15,0 C 70 % 1006,5 hPa 0,0 l/m 0 min 0 min 98 W/m 16,1 km/h (3 Bft) 97,87 %
02.10.2021 16:48 17,8 C 17,2 C 15,0 C 71 % 1006,4 hPa 0,0 l/m 0 min 0 min 105 W/m 16,1 km/h (3 Bft) 97,87 %
02.10.2021 16:50 17,8 C 17,2 C 15,0 C 71 % 1006,3 hPa 0,0 l/m 0 min 0 min 107 W/m 16,1 km/h (3 Bft) 97,87 %
02.10.2021 16:52 17,8 C 17,2 C 15,0 C 71 % 1006,3 hPa 0,0 l/m 0 min 0 min 106 W/m 6,4 km/h (2 Bft) 97,83 %
02.10.2021 16:54 17,8 C 17,2 C 15,0 C 71 % 1006,3 hPa 0,0 l/m 0 min 0 min 106 W/m 9,7 km/h (2 Bft) 100,00 %
02.10.2021 16:56 17,8 C 17,2 C 15,0 C 71 % 1006,3 hPa 0,0 l/m 0 min 0 min 105 W/m 9,7 km/h (2 Bft) 97,87 %
02.10.2021 16:58 17,8 C 17,2 C 15,0 C 71 % 1006,3 hPa 0,0 l/m 0 min 0 min 105 W/m 12,9 km/h (3 Bft) 95,74 %
02.10.2021 17:00 17,7 C 17,2 C 15,0 C 71 % 1006,3 hPa 0,0 l/m 0 min 0 min 105 W/m 12,9 km/h (3 Bft) 95,74 %
02.10.2021 17:02 17,7 C 17,2 C 15,0 C 72 % 1006,2 hPa 0,0 l/m 0 min 0 min 104 W/m 12,9 km/h (3 Bft) 91,49 %
02.10.2021 17:04 17,7 C 17,2 C 15,0 C 71 % 1006,1 hPa 0,0 l/m 0 min 0 min 104 W/m 16,1 km/h (3 Bft) 93,48 %
02.10.2021 17:06 17,7 C 17,2 C 15,0 C 71 % 1006,1 hPa 0,0 l/m 0 min 0 min 107 W/m 19,3 km/h (3 Bft) 93,62 %
02.10.2021 17:08 17,7 C 17,2 C 15,0 C 71 % 1006,1 hPa 0,0 l/m 0 min 0 min 113 W/m 16,1 km/h (3 Bft) 93,62 %
02.10.2021 17:10 17,6 C 17,2 C 15,0 C 71 % 1006,0 hPa 0,0 l/m 0 min 0 min 118 W/m 12,9 km/h (3 Bft) 91,49 %
02.10.2021 17:12 17,6 C 17,2 C 15,0 C 71 % 1005,9 hPa 0,0 l/m 0 min 0 min 115 W/m 16,1 km/h (3 Bft) 93,62 %
02.10.2021 17:14 17,6 C 17,2 C 15,0 C 71 % 1005,9 hPa 0,0 l/m 0 min 0 min 109 W/m 12,9 km/h (3 Bft) 95,74 %
02.10.2021 17:16 17,6 C 17,2 C 15,0 C 71 % 1005,8 hPa 0,0 l/m 0 min 0 min 100 W/m 16,1 km/h (3 Bft) 96,15 %
02.10.2021 17:18 17,6 C 17,2 C 15,0 C 71 % 1005,7 hPa 0,0 l/m 0 min 0 min 91 W/m 12,9 km/h (3 Bft) 93,62 %
02.10.2021 17:20 17,6 C 17,2 C 15,0 C 71 % 1005,7 hPa 0,0 l/m 0 min 0 min 87 W/m 9,7 km/h (2 Bft) 95,74 %
02.10.2021 17:22 17,6 C 16,7 C 15,0 C 71 % 1005,7 hPa 0,0 l/m 0 min 0 min 86 W/m 16,1 km/h (3 Bft) 95,74 %
02.10.2021 17:24 17,6 C 16,7 C 15,0 C 71 % 1005,6 hPa 0,0 l/m 0 min 0 min 85 W/m 12,9 km/h (3 Bft) 95,74 %
02.10.2021 17:26 17,6 C 16,7 C 15,0 C 71 % 1005,4 hPa 0,0 l/m 0 min 0 min 77 W/m 16,1 km/h (3 Bft) 95,12 %
02.10.2021 17:28 17,5 C 16,7 C 15,0 C 71 % 1005,4 hPa 0,0 l/m 0 min 0 min 67 W/m 12,9 km/h (3 Bft) 95,65 %
02.10.2021 17:30 17,5 C 16,7 C 15,0 C 71 % 1005,2 hPa 0,0 l/m 0 min 0 min 56 W/m 12,9 km/h (3 Bft) 95,74 %
02.10.2021 17:32 17,5 C 16,7 C 14,5 C 71 % 1005,1 hPa 0,0 l/m 0 min 0 min 50 W/m 12,9 km/h (3 Bft) 98,11 %
02.10.2021 17:34 17,5 C 16,7 C 14,5 C 72 % 1005,0 hPa 0,0 l/m 0 min 0 min 47 W/m 9,7 km/h (2 Bft) 95,74 %
02.10.2021 17:36 17,5 C 16,7 C 14,5 C 72 % 1005,0 hPa 0,0 l/m 0 min 0 min 48 W/m 12,9 km/h (3 Bft) 97,87 %
02.10.2021 17:38 17,4 C 16,7 C 14,5 C 72 % 1005,0 hPa 0,0 l/m 0 min 0 min 52 W/m 12,9 km/h (3 Bft) 97,83 %
02.10.2021 17:40 17,4 C 16,7 C 14,5 C 73 % 1004,9 hPa 0,0 l/m 0 min 0 min 57 W/m 6,4 km/h (2 Bft) 97,87 %
02.10.2021 17:42 17,4 C 16,7 C 14,5 C 73 % 1004,9 hPa 0,0 l/m 0 min 0 min 59 W/m 3,2 km/h (1 Bft) 97,87 %
02.10.2021 17:44 17,4 C 16,7 C 14,5 C 74 % 1004,8 hPa 0,0 l/m 0 min 0 min 61 W/m 12,9 km/h (3 Bft) 97,56 %
02.10.2021 17:46 17,3 C 16,1 C 14,5 C 74 % 1004,8 hPa 0,0 l/m 0 min 0 min 57 W/m 9,7 km/h (2 Bft) 98,11 %
02.10.2021 17:48 17,3 C 16,1 C 14,5 C 75 % 1004,8 hPa 0,0 l/m 0 min 0 min 50 W/m 16,1 km/h (3 Bft) 100,00 %
02.10.2021 17:50 17,3 C 16,1 C 14,5 C 75 % 1004,7 hPa 0,0 l/m 0 min 0 min 43 W/m 16,1 km/h (3 Bft) 100,00 %
02.10.2021 17:52 17,2 C 16,1 C 14,5 C 76 % 1004,6 hPa 0,0 l/m 0 min 0 min 40 W/m 12,9 km/h (3 Bft) 97,87 %
02.10.2021 17:54 17,1 C 16,1 C 14,5 C 76 % 1004,6 hPa 0,0 l/m 0 min 0 min 41 W/m 19,3 km/h (3 Bft) 100,00 %
02.10.2021 17:56 17,1 C 16,1 C 14,5 C 76 % 1004,6 hPa 0,0 l/m 0 min 0 min 43 W/m 6,4 km/h (2 Bft) 100,00 %
02.10.2021 17:58 17,1 C 16,1 C 14,5 C 76 % 1004,7 hPa 0,0 l/m 0 min 0 min 44 W/m 16,1 km/h (3 Bft) 100,00 %
02.10.2021 18:00 17,0 C 16,1 C 14,5 C 76 % 1004,7 hPa 0,0 l/m 0 min 0 min 43 W/m 19,3 km/h (3 Bft) 97,87 %
02.10.2021 18:02 17,0 C 16,1 C 14,5 C 77 % 1004,8 hPa 0,0 l/m 0 min 0 min 41 W/m 19,3 km/h (3 Bft) 100,00 %
02.10.2021 18:04 17,0 C 16,1 C 14,5 C 77 % 1004,7 hPa 0,0 l/m 0 min 0 min 38 W/m 9,7 km/h (2 Bft) 100,00 %
02.10.2021 18:08 16,9 C 16,1 C 13,9 C 77 % 1004,7 hPa 0,0 l/m 0 min 0 min 34 W/m 16,1 km/h (3 Bft) 100,00 %
02.10.2021 18:10 16,9 C 16,1 C 13,9 C 78 % 1004,6 hPa 0,0 l/m 0 min 0 min 31 W/m 16,1 km/h (3 Bft) 100,00 %
02.10.2021 18:12 16,9 C 16,1 C 14,5 C 78 % 1004,5 hPa 0,0 l/m 0 min 0 min 27 W/m 16,1 km/h (3 Bft) 100,00 %
02.10.2021 18:14 16,9 C 16,1 C 13,9 C 78 % 1004,6 hPa 0,0 l/m 0 min 0 min 22 W/m 16,1 km/h (3 Bft) 100,00 %
02.10.2021 18:16 16,9 C 16,1 C 13,9 C 78 % 1004,6 hPa 0,0 l/m 0 min 0 min 19 W/m 16,1 km/h (3 Bft) 100,00 %
02.10.2021 18:18 16,9 C 16,1 C 13,9 C 78 % 1004,6 hPa 0,0 l/m 0 min 0 min 18 W/m 12,9 km/h (3 Bft) 100,00 %
02.10.2021 18:20 16,8 C 16,1 C 13,9 C 78 % 1004,6 hPa 0,0 l/m 0 min 0 min 16 W/m 16,1 km/h (3 Bft) 100,00 %
02.10.2021 18:22 16,8 C 16,1 C 13,9 C 78 % 1004,5 hPa 0,0 l/m 0 min 0 min 16 W/m 16,1 km/h (3 Bft) 100,00 %
02.10.2021 18:24 16,8 C 16,1 C 13,9 C 78 % 1004,4 hPa 0,0 l/m 0 min 0 min 17 W/m 16,1 km/h (3 Bft) 100,00 %
02.10.2021 18:26 16,8 C 16,1 C 13,9 C 78 % 1004,4 hPa 0,0 l/m 0 min 0 min 17 W/m 16,1 km/h (3 Bft) 100,00 %
02.10.2021 18:28 16,8 C 16,1 C 13,9 C 79 % 1004,3 hPa 0,0 l/m 0 min 0 min 16 W/m 19,3 km/h (3 Bft) 100,00 %
02.10.2021 18:30 16,8 C 16,1 C 13,9 C 79 % 1004,2 hPa 0,0 l/m 0 min 0 min 15 W/m 12,9 km/h (3 Bft) 100,00 %
02.10.2021 18:32 16,8 C 16,1 C 13,9 C 79 % 1004,3 hPa 0,0 l/m 0 min 0 min 14 W/m 12,9 km/h (3 Bft) 100,00 %
02.10.2021 18:34 16,7 C 16,1 C 13,9 C 79 % 1004,3 hPa 0,0 l/m 0 min 0 min 12 W/m 19,3 km/h (3 Bft) 100,00 %
02.10.2021 18:36 16,7 C 16,1 C 13,9 C 79 % 1004,2 hPa 0,0 l/m 0 min 0 min 11 W/m 16,1 km/h (3 Bft) 100,00 %
02.10.2021 18:38 16,7 C 16,1 C 13,9 C 79 % 1004,1 hPa 0,0 l/m 0 min 0 min 8 W/m 16,1 km/h (3 Bft) 100,00 %
02.10.2021 18:40 16,7 C 16,1 C 13,9 C 79 % 1004,1 hPa 0,0 l/m 0 min 0 min 7 W/m 12,9 km/h (3 Bft) 100,00 %
02.10.2021 18:42 16,7 C 15,6 C 13,9 C 79 % 1004,1 hPa 0,0 l/m 0 min 0 min 7 W/m 16,1 km/h (3 Bft) 100,00 %
02.10.2021 18:44 16,6 C 15,6 C 13,9 C 80 % 1004,0 hPa 0,0 l/m 0 min 0 min 7 W/m 12,9 km/h (3 Bft) 97,87 %
02.10.2021 18:46 16,6 C 15,6 C 13,9 C 80 % 1004,0 hPa 0,0 l/m 0 min 0 min 7 W/m 12,9 km/h (3 Bft) 100,00 %
02.10.2021 18:48 16,6 C 15,6 C 13,9 C 80 % 1004,0 hPa 0,0 l/m 0 min 0 min 6 W/m 12,9 km/h (3 Bft) 100,00 %
02.10.2021 18:50 16,6 C 15,6 C 13,9 C 80 % 1003,8 hPa 0,0 l/m 0 min 0 min 5 W/m 9,7 km/h (2 Bft) 100,00 %
02.10.2021 18:52 16,6 C 15,6 C 13,9 C 80 % 1003,8 hPa 0,0 l/m 0 min 0 min 5 W/m 16,1 km/h (3 Bft) 100,00 %
02.10.2021 18:54 16,6 C 15,6 C 13,9 C 80 % 1003,7 hPa 0,0 l/m 0 min 0 min 4 W/m 16,1 km/h (3 Bft) 97,87 %
02.10.2021 18:56 16,6 C 15,6 C 13,9 C 80 % 1003,7 hPa 0,0 l/m 0 min 0 min 0 W/m 16,1 km/h (3 Bft) 100,00 %
02.10.2021 18:58 16,6 C 15,6 C 13,9 C 80 % 1003,7 hPa 0,0 l/m 0 min 0 min 0 W/m 19,3 km/h (3 Bft) 97,87 %
02.10.2021 19:00 16,6 C 15,6 C 13,9 C 80 % 1003,6 hPa 0,0 l/m 0 min 0 min 0 W/m 22,5 km/h (4 Bft) 95,74 %
02.10.2021 19:02 16,6 C 16,1 C 13,9 C 80 % 1003,6 hPa 0,0 l/m 0 min 0 min 0 W/m 16,1 km/h (3 Bft) 93,48 %
02.10.2021 19:04 16,6 C 16,1 C 13,9 C 80 % 1003,6 hPa 0,0 l/m 0 min 0 min 0 W/m 19,3 km/h (3 Bft) 97,87 %
02.10.2021 19:06 16,6 C 16,1 C 13,9 C 81 % 1003,6 hPa 0,0 l/m 0 min 0 min 0 W/m 16,1 km/h (3 Bft) 97,87 %
02.10.2021 19:08 16,6 C 15,6 C 13,9 C 81 % 1003,5 hPa 0,0 l/m 0 min 0 min 0 W/m 16,1 km/h (3 Bft) 96,08 %
02.10.2021 19:10 16,6 C 15,6 C 13,9 C 81 % 1003,5 hPa 0,0 l/m 0 min 2 min 0 W/m 12,9 km/h (3 Bft) 95,74 %
02.10.2021 19:12 16,6 C 15,6 C 13,9 C 81 % 1003,4 hPa 0,0 l/m 0 min 2 min 0 W/m 16,1 km/h (3 Bft) 93,48 %
02.10.2021 19:14 16,6 C 15,6 C 13,9 C 81 % 1003,5 hPa 0,0 l/m 0 min 0 min 0 W/m 16,1 km/h (3 Bft) 97,87 %
02.10.2021 19:16 16,6 C 15,6 C 13,9 C 81 % 1003,6 hPa 0,0 l/m 0 min 0 min 0 W/m 16,1 km/h (3 Bft) 97,87 %
02.10.2021 19:18 16,6 C 15,6 C 13,9 C 81 % 1003,5 hPa 0,0 l/m 0 min 0 min 0 W/m 12,9 km/h (3 Bft) 95,74 %
02.10.2021 19:20 16,6 C 15,6 C 13,4 C 82 % 1003,6 hPa 0,0 l/m 0 min 2 min 0 W/m 16,1 km/h (3 Bft) 95,74 %
02.10.2021 19:22 16,6 C 15,6 C 13,4 C 82 % 1003,5 hPa 0,0 l/m 0 min 2 min 0 W/m 22,5 km/h (4 Bft) 95,74 %
02.10.2021 19:24 16,5 C 15,6 C 12,8 C 82 % 1003,6 hPa 0,0 l/m 0 min 2 min 0 W/m 25,7 km/h (4 Bft) 93,48 %
02.10.2021 19:26 16,5 C 15,6 C 12,8 C 83 % 1003,5 hPa 0,0 l/m 0 min 2 min 0 W/m 19,3 km/h (3 Bft) 95,74 %
02.10.2021 19:28 16,5 C 15,6 C 12,3 C 83 % 1003,5 hPa 0,0 l/m 0 min 2 min 0 W/m 16,1 km/h (3 Bft) 97,87 %
02.10.2021 19:30 16,5 C 15,6 C 12,3 C 83 % 1003,4 hPa 0,0 l/m 0 min 2 min 0 W/m 25,7 km/h (4 Bft) 97,87 %
02.10.2021 19:32 16,4 C 15,6 C 12,3 C 83 % 1003,4 hPa 0,0 l/m 0 min 2 min 0 W/m 19,3 km/h (3 Bft) 95,74 %
02.10.2021 19:34 16,4 C 15,0 C 12,3 C 84 % 1003,3 hPa 0,0 l/m 0 min 2 min 0 W/m 22,5 km/h (4 Bft) 97,87 %
02.10.2021 19:36 16,4 C 15,0 C 12,3 C 84 % 1003,3 hPa 0,0 l/m 0 min 2 min 0 W/m 6,4 km/h (2 Bft) 97,83 %
02.10.2021 19:38 16,3 C 15,0 C 12,3 C 84 % 1003,3 hPa 0,0 l/m 0 min 2 min 0 W/m 16,1 km/h (3 Bft) 97,87 %
02.10.2021 19:40 16,3 C 15,0 C 12,3 C 85 % 1003,3 hPa 0,0 l/m 0 min 2 min 0 W/m 19,3 km/h (3 Bft) 97,87 %
02.10.2021 19:42 16,2 C 15,0 C 12,3 C 85 % 1003,3 hPa 0,2 l/m 0 min 2 min 0 W/m 12,9 km/h (3 Bft) 97,87 %
02.10.2021 19:44 16,1 C 15,0 C 12,3 C 85 % 1003,1 hPa 0,0 l/m 0 min 2 min 0 W/m 16,1 km/h (3 Bft) 97,87 %
02.10.2021 19:46 16,1 C 15,0 C 12,3 C 85 % 1003,1 hPa 0,0 l/m 0 min 2 min 0 W/m 16,1 km/h (3 Bft) 95,65 %
02.10.2021 19:48 16,0 C 15,0 C 12,3 C 86 % 1003,2 hPa 0,0 l/m 0 min 2 min 0 W/m 19,3 km/h (3 Bft) 93,62 %
02.10.2021 19:50 16,0 C 15,0 C 12,3 C 86 % 1003,1 hPa 0,0 l/m 0 min 2 min 0 W/m 16,1 km/h (3 Bft) 95,74 %
02.10.2021 19:52 16,0 C 15,0 C 12,3 C 86 % 1003,0 hPa 0,0 l/m 0 min 2 min 0 W/m 19,3 km/h (3 Bft) 97,87 %
02.10.2021 19:54 15,9 C 15,0 C 12,3 C 86 % 1003,0 hPa 0,0 l/m 0 min 2 min 0 W/m 16,1 km/h (3 Bft) 93,62 %
02.10.2021 19:56 15,9 C 14,4 C 12,3 C 87 % 1003,1 hPa 0,2 l/m 0 min 2 min 0 W/m 16,1 km/h (3 Bft) 97,87 %
02.10.2021 19:58 15,9 C 14,4 C 12,3 C 87 % 1003,0 hPa 0,0 l/m 0 min 2 min 0 W/m 12,9 km/h (3 Bft) 95,65 %
02.10.2021 20:00 15,8 C 14,4 C 12,3 C 87 % 1002,9 hPa 0,0 l/m 0 min 2 min 0 W/m 16,1 km/h (3 Bft) 95,74 %
02.10.2021 20:02 15,8 C 14,4 C 12,3 C 88 % 1002,9 hPa 0,0 l/m 0 min 2 min 0 W/m 16,1 km/h (3 Bft) 95,74 %
02.10.2021 20:04 15,8 C 14,4 C 12,3 C 88 % 1002,9 hPa 0,0 l/m 0 min 2 min 0 W/m 16,1 km/h (3 Bft) 97,87 %
02.10.2021 20:06 15,7 C 14,4 C 12,3 C 88 % 1002,8 hPa 0,0 l/m 0 min 2 min 0 W/m 22,5 km/h (4 Bft) 95,74 %
02.10.2021 20:08 15,6 C 14,4 C 12,3 C 88 % 1002,7 hPa 0,0 l/m 0 min 2 min 0 W/m 16,1 km/h (3 Bft) 97,87 %
02.10.2021 20:10 15,6 C 14,4 C 12,3 C 88 % 1002,7 hPa 0,0 l/m 0 min 2 min 0 W/m 16,1 km/h (3 Bft) 97,83 %
02.10.2021 20:12 15,6 C 14,4 C 12,3 C 88 % 1002,7 hPa 0,0 l/m 0 min 2 min 0 W/m 12,9 km/h (3 Bft) 95,74 %
02.10.2021 20:14 15,6 C 14,4 C 12,3 C 89 % 1002,6 hPa 0,2 l/m 0 min 2 min 0 W/m 16,1 km/h (3 Bft) 95,74 %
02.10.2021 20:16 15,5 C 14,4 C 12,3 C 89 % 1002,5 hPa 0,0 l/m 0 min 2 min 0 W/m 16,1 km/h (3 Bft) 96,23 %
02.10.2021 20:18 15,5 C 14,4 C 12,3 C 89 % 1002,4 hPa 0,0 l/m 0 min 2 min 0 W/m 16,1 km/h (3 Bft) 97,87 %
02.10.2021 20:20 15,5 C 14,4 C 12,3 C 89 % 1002,4 hPa 0,0 l/m 0 min 2 min 0 W/m 16,1 km/h (3 Bft) 97,83 %
02.10.2021 20:22 15,5 C 14,4 C 12,3 C 89 % 1002,4 hPa 0,2 l/m 0 min 2 min 0 W/m 16,1 km/h (3 Bft) 97,87 %
02.10.2021 20:24 15,5 C 14,4 C 12,3 C 89 % 1002,3 hPa 0,0 l/m 0 min 2 min 0 W/m 16,1 km/h (3 Bft) 97,87 %
02.10.2021 20:26 15,5 C 14,4 C 12,3 C 90 % 1002,3 hPa 0,0 l/m 0 min 2 min 0 W/m 25,7 km/h (4 Bft) 97,87 %
02.10.2021 20:28 15,4 C 14,4 C 12,3 C 90 % 1002,2 hPa 0,0 l/m 0 min 2 min 0 W/m 16,1 km/h (3 Bft) 95,74 %
02.10.2021 20:30 15,4 C 14,4 C 12,3 C 90 % 1002,2 hPa 0,0 l/m 0 min 2 min 0 W/m 16,1 km/h (3 Bft) 95,74 %
02.10.2021 20:32 15,4 C 14,4 C 12,3 C 90 % 1002,1 hPa 0,0 l/m 0 min 2 min 0 W/m 12,9 km/h (3 Bft) 97,83 %
02.10.2021 20:34 15,4 C 14,4 C 12,3 C 90 % 1002,0 hPa 0,0 l/m 0 min 2 min 0 W/m 12,9 km/h (3 Bft) 97,87 %
02.10.2021 20:36 15,4 C 14,4 C 12,3 C 90 % 1002,0 hPa 0,0 l/m 0 min 2 min 0 W/m 16,1 km/h (3 Bft) 97,87 %
02.10.2021 20:38 15,3 C 14,4 C 12,3 C 91 % 1001,9 hPa 0,0 l/m 0 min 2 min 0 W/m 12,9 km/h (3 Bft) 100,00 %
02.10.2021 20:40 15,3 C 14,4 C 12,3 C 91 % 1001,8 hPa 0,0 l/m 0 min 2 min 0 W/m 12,9 km/h (3 Bft) 100,00 %
02.10.2021 20:42 15,3 C 14,4 C 12,3 C 91 % 1001,8 hPa 0,0 l/m 0 min 2 min 0 W/m 16,1 km/h (3 Bft) 100,00 %
02.10.2021 20:44 15,3 C 14,4 C 12,3 C 91 % 1001,7 hPa 0,0 l/m 0 min 2 min 0 W/m 22,5 km/h (4 Bft) 100,00 %
02.10.2021 20:46 15,3 C 14,4 C 12,3 C 91 % 1001,5 hPa 0,0 l/m 0 min 2 min 0 W/m 9,7 km/h (2 Bft) 100,00 %
02.10.2021 20:48 15,3 C 14,4 C 12,3 C 91 % 1001,5 hPa 0,0 l/m 0 min 2 min 0 W/m 12,9 km/h (3 Bft) 100,00 %
02.10.2021 20:50 15,3 C 14,4 C 12,3 C 91 % 1001,5 hPa 0,0 l/m 0 min 2 min 0 W/m 16,1 km/h (3 Bft) 95,74 %
02.10.2021 20:52 15,3 C 14,4 C 12,3 C 91 % 1001,5 hPa 0,0 l/m 0 min 2 min 0 W/m 19,3 km/h (3 Bft) 97,87 %
02.10.2021 20:54 15,3 C 14,4 C 12,3 C 91 % 1001,4 hPa 0,0 l/m 0 min 2 min 0 W/m 16,1 km/h (3 Bft) 97,87 %
02.10.2021 20:56 15,3 C 14,4 C 12,3 C 91 % 1001,4 hPa 0,0 l/m 0 min 0 min 0 W/m 12,9 km/h (3 Bft) 97,87 %
02.10.2021 20:58 15,3 C 14,4 C 12,3 C 91 % 1001,3 hPa 0,0 l/m 0 min 2 min 0 W/m 22,5 km/h (4 Bft) 97,83 %
02.10.2021 21:00 15,3 C 14,4 C 12,3 C 91 % 1001,3 hPa 0,0 l/m 0 min 2 min 0 W/m 12,9 km/h (3 Bft) 97,87 %
02.10.2021 21:02 15,3 C 14,4 C 12,3 C 91 % 1001,4 hPa 0,2 l/m 0 min 2 min 0 W/m 12,9 km/h (3 Bft) 97,87 %
02.10.2021 21:04 15,3 C 14,4 C 12,3 C 91 % 1001,3 hPa 0,0 l/m 0 min 2 min 0 W/m 16,1 km/h (3 Bft) 95,74 %
02.10.2021 21:06 15,3 C 14,4 C 12,3 C 92 % 1001,3 hPa 0,0 l/m 0 min 2 min 0 W/m 12,9 km/h (3 Bft) 97,87 %
02.10.2021 21:08 15,2 C 14,4 C 12,3 C 92 % 1001,3 hPa 0,0 l/m 0 min 2 min 0 W/m 19,3 km/h (3 Bft) 97,83 %
02.10.2021 21:10 15,2 C 14,4 C 12,3 C 92 % 1001,4 hPa 0,0 l/m 0 min 2 min 0 W/m 16,1 km/h (3 Bft) 98,00 %
02.10.2021 21:12 15,2 C 14,4 C 12,3 C 92 % 1001,3 hPa 0,2 l/m 0 min 2 min 0 W/m 12,9 km/h (3 Bft) 97,87 %
02.10.2021 21:14 15,2 C 14,4 C 12,3 C 92 % 1001,2 hPa 0,0 l/m 0 min 2 min 0 W/m 19,3 km/h (3 Bft) 97,87 %
02.10.2021 21:16 15,2 C 14,4 C 12,3 C 92 % 1001,2 hPa 0,0 l/m 0 min 2 min 0 W/m 22,5 km/h (4 Bft) 97,87 %
02.10.2021 21:18 15,2 C 14,4 C 12,3 C 92 % 1001,1 hPa 0,0 l/m 0 min 2 min 0 W/m 16,1 km/h (3 Bft) 97,87 %
02.10.2021 21:20 15,2 C 14,4 C 12,3 C 92 % 1001,0 hPa 0,0 l/m 0 min 2 min 0 W/m 16,1 km/h (3 Bft) 97,83 %
02.10.2021 21:22 15,2 C 14,4 C 12,3 C 92 % 1000,9 hPa 0,0 l/m 0 min 2 min 0 W/m 9,7 km/h (2 Bft) 97,87 %
02.10.2021 21:24 15,2 C 14,4 C 12,3 C 92 % 1000,8 hPa 0,0 l/m 0 min 2 min 0 W/m 12,9 km/h (3 Bft) 97,87 %
02.10.2021 21:26 15,2 C 14,4 C 12,3 C 92 % 1000,8 hPa 0,0 l/m 0 min 2 min 0 W/m 16,1 km/h (3 Bft) 100,00 %
02.10.2021 21:28 15,2 C 14,4 C 12,3 C 92 % 1000,8 hPa 0,0 l/m 0 min 2 min 0 W/m 19,3 km/h (3 Bft) 100,00 %
02.10.2021 21:30 15,1 C 14,4 C 12,3 C 92 % 1000,7 hPa 0,0 l/m 0 min 0 min 0 W/m 6,4 km/h (2 Bft) 100,00 %
02.10.2021 21:32 15,1 C 14,4 C 12,3 C 92 % 1000,7 hPa 0,0 l/m 0 min 0 min 0 W/m 16,1 km/h (3 Bft) 100,00 %
02.10.2021 21:34 15,1 C 14,4 C 12,3 C 92 % 1000,7 hPa 0,0 l/m 0 min 2 min 0 W/m 12,9 km/h (3 Bft) 100,00 %
02.10.2021 21:36 15,1 C 14,4 C 12,3 C 92 % 1000,8 hPa 0,0 l/m 0 min 2 min 0 W/m 9,7 km/h (2 Bft) 100,00 %
02.10.2021 21:38 15,1 C 14,4 C 12,3 C 92 % 1000,7 hPa 0,0 l/m 0 min 2 min 0 W/m 16,1 km/h (3 Bft) 93,62 %
02.10.2021 21:40 15,1 C 14,4 C 12,3 C 92 % 1000,7 hPa 0,0 l/m 0 min 2 min 0 W/m 16,1 km/h (3 Bft) 100,00 %
02.10.2021 21:42 15,1 C 14,4 C 12,3 C 92 % 1000,6 hPa 0,0 l/m 0 min 2 min 0 W/m 22,5 km/h (4 Bft) 100,00 %
02.10.2021 21:44 15,1 C 14,4 C 12,3 C 92 % 1000,5 hPa 0,0 l/m 0 min 2 min 0 W/m 19,3 km/h (3 Bft) 100,00 %
02.10.2021 21:46 15,1 C 14,4 C 12,3 C 92 % 1000,5 hPa 0,0 l/m 0 min 2 min 0 W/m 16,1 km/h (3 Bft) 95,74 %
02.10.2021 21:48 15,2 C 14,4 C 12,3 C 92 % 1000,5 hPa 0,2 l/m 0 min 2 min 0 W/m 16,1 km/h (3 Bft) 97,87 %
02.10.2021 21:50 15,2 C 14,4 C 12,3 C 92 % 1000,4 hPa 0,0 l/m 0 min 2 min 0 W/m 16,1 km/h (3 Bft) 97,87 %
02.10.2021 21:52 15,2 C 14,4 C 12,8 C 92 % 1000,4 hPa 0,0 l/m 0 min 2 min 0 W/m 12,9 km/h (3 Bft) 95,65 %
02.10.2021 21:54 15,2 C 14,4 C 12,3 C 92 % 1000,3 hPa 0,0 l/m 0 min 2 min 0 W/m 12,9 km/h (3 Bft) 97,87 %
02.10.2021 21:56 15,2 C 14,4 C 12,3 C 92 % 1000,3 hPa 0,0 l/m 0 min 0 min 0 W/m 22,5 km/h (4 Bft) 95,74 %
02.10.2021 21:58 15,2 C 14,4 C 12,8 C 92 % 1000,2 hPa 0,0 l/m 0 min 2 min 0 W/m 16,1 km/h (3 Bft) 97,87 %
02.10.2021 22:00 15,2 C 14,4 C 12,3 C 92 % 1000,1 hPa 0,0 l/m 0 min 2 min 0 W/m 22,5 km/h (4 Bft) 91,49 %
02.10.2021 22:02 15,2 C 14,4 C 12,8 C 92 % 1000,0 hPa 0,0 l/m 0 min 2 min 0 W/m 16,1 km/h (3 Bft) 97,22 %
02.10.2021 22:04 15,3 C 14,4 C 12,8 C 92 % 1000,0 hPa 0,0 l/m 0 min 2 min 0 W/m 16,1 km/h (3 Bft) 97,87 %
02.10.2021 22:06 15,3 C 14,4 C 12,8 C 92 % 999,9 hPa 0,0 l/m 0 min 2 min 0 W/m 16,1 km/h (3 Bft) 97,87 %
02.10.2021 22:08 15,3 C 14,4 C 12,8 C 92 % 999,8 hPa 0,0 l/m 0 min 2 min 0 W/m 9,7 km/h (2 Bft) 97,83 %
02.10.2021 22:10 15,3 C 14,4 C 12,8 C 92 % 999,9 hPa 0,0 l/m 0 min 0 min 0 W/m 16,1 km/h (3 Bft) 97,87 %
02.10.2021 22:12 15,3 C 14,4 C 12,8 C 92 % 999,8 hPa 0,0 l/m 0 min 2 min 0 W/m 19,3 km/h (3 Bft) 95,74 %
02.10.2021 22:14 15,3 C 14,4 C 12,8 C 92 % 999,9 hPa 0,0 l/m 0 min 2 min 0 W/m 19,3 km/h (3 Bft) 97,87 %
02.10.2021 22:16 15,3 C 14,4 C 12,8 C 92 % 999,8 hPa 0,0 l/m 0 min 2 min 0 W/m 19,3 km/h (3 Bft) 97,87 %
02.10.2021 22:18 15,3 C 14,4 C 12,8 C 92 % 999,8 hPa 0,0 l/m 0 min 2 min 0 W/m 12,9 km/h (3 Bft) 97,83 %
02.10.2021 22:20 15,3 C 14,4 C 12,8 C 92 % 999,7 hPa 0,0 l/m 0 min 2 min 0 W/m 19,3 km/h (3 Bft) 100,00 %
02.10.2021 22:22 15,3 C 14,4 C 12,8 C 92 % 999,7 hPa 0,0 l/m 0 min 2 min 0 W/m 12,9 km/h (3 Bft) 97,87 %
02.10.2021 22:24 15,3 C 14,4 C 12,8 C 92 % 999,7 hPa 0,0 l/m 0 min 2 min 0 W/m 16,1 km/h (3 Bft) 97,87 %
02.10.2021 22:26 15,3 C 14,4 C 12,8 C 92 % 999,7 hPa 0,2 l/m 0 min 2 min 0 W/m 22,5 km/h (4 Bft) 97,87 %
02.10.2021 22:28 15,4 C 14,4 C 12,8 C 92 % 999,6 hPa 0,0 l/m 0 min 2 min 0 W/m 22,5 km/h (4 Bft) 95,74 %
02.10.2021 22:30 15,4 C 14,4 C 12,8 C 92 % 999,6 hPa 0,0 l/m 0 min 2 min 0 W/m 16,1 km/h (3 Bft) 100,00 %
02.10.2021 22:32 15,4 C 14,4 C 12,8 C 92 % 999,5 hPa 0,0 l/m 0 min 0 min 0 W/m 6,4 km/h (2 Bft) 100,00 %
02.10.2021 22:34 15,4 C 14,4 C 12,8 C 92 % 999,4 hPa 0,0 l/m 0 min 0 min 0 W/m 19,3 km/h (3 Bft) 100,00 %
02.10.2021 22:36 15,4 C 14,4 C 12,8 C 92 % 999,4 hPa 0,0 l/m 0 min 0 min 0 W/m 16,1 km/h (3 Bft) 100,00 %
02.10.2021 22:38 15,4 C 15,0 C 12,8 C 92 % 999,4 hPa 0,0 l/m 0 min 0 min 0 W/m 16,1 km/h (3 Bft) 97,87 %
02.10.2021 22:40 15,4 C 15,0 C 12,8 C 92 % 999,4 hPa 0,0 l/m 0 min 0 min 0 W/m 22,5 km/h (4 Bft) 100,00 %
02.10.2021 22:42 15,5 C 15,0 C 12,8 C 92 % 999,4 hPa 0,0 l/m 0 min 0 min 0 W/m 12,9 km/h (3 Bft) 100,00 %
02.10.2021 22:44 15,5 C 15,0 C 12,8 C 91 % 999,3 hPa 0,0 l/m 0 min 0 min 0 W/m 16,1 km/h (3 Bft) 100,00 %
02.10.2021 22:46 15,5 C 15,0 C 12,8 C 91 % 999,3 hPa 0,0 l/m 0 min 0 min 0 W/m 22,5 km/h (4 Bft) 97,87 %
02.10.2021 22:48 15,6 C 15,6 C 12,8 C 91 % 999,4 hPa 0,0 l/m 0 min 0 min 0 W/m 25,7 km/h (4 Bft) 95,74 %
02.10.2021 22:50 15,7 C 15,6 C 12,8 C 91 % 999,3 hPa 0,0 l/m 0 min 2 min 0 W/m 25,7 km/h (4 Bft) 93,62 %
02.10.2021 22:52 15,8 C 15,6 C 12,8 C 90 % 999,3 hPa 0,0 l/m 0 min 2 min 0 W/m 22,5 km/h (4 Bft) 91,49 %
02.10.2021 22:54 15,8 C 15,6 C 12,8 C 90 % 999,2 hPa 0,0 l/m 0 min 2 min 0 W/m 12,9 km/h (3 Bft) 95,65 %
02.10.2021 22:56 15,9 C 15,6 C 12,8 C 90 % 999,2 hPa 0,0 l/m 0 min 2 min 0 W/m 12,9 km/h (3 Bft) 91,49 %
02.10.2021 22:58 15,9 C 15,6 C 12,8 C 90 % 999,3 hPa 0,0 l/m 0 min 2 min 0 W/m 16,1 km/h (3 Bft) 95,74 %
02.10.2021 23:00 16,0 C 15,6 C 12,8 C 90 % 999,3 hPa 0,0 l/m 0 min 2 min 0 W/m 19,3 km/h (3 Bft) 97,87 %
02.10.2021 23:02 16,0 C 15,6 C 12,8 C 90 % 999,3 hPa 0,0 l/m 0 min 2 min 0 W/m 6,4 km/h (2 Bft) 93,62 %
02.10.2021 23:04 16,0 C 15,6 C 12,8 C 90 % 999,2 hPa 0,0 l/m 0 min 2 min 0 W/m 25,7 km/h (4 Bft) 93,62 %
02.10.2021 23:06 16,1 C 15,6 C 12,8 C 90 % 999,2 hPa 0,0 l/m 0 min 2 min 0 W/m 9,7 km/h (2 Bft) 95,65 %
02.10.2021 23:08 16,1 C 15,6 C 13,4 C 89 % 999,1 hPa 0,0 l/m 0 min 2 min 0 W/m 16,1 km/h (3 Bft) 93,62 %
02.10.2021 23:10 16,2 C 15,6 C 13,4 C 89 % 999,1 hPa 0,0 l/m 0 min 2 min 0 W/m 16,1 km/h (3 Bft) 96,00 %
02.10.2021 23:12 16,3 C 15,6 C 13,4 C 89 % 999,0 hPa 0,0 l/m 0 min 2 min 0 W/m 16,1 km/h (3 Bft) 95,74 %
02.10.2021 23:14 16,3 C 16,1 C 13,4 C 89 % 999,0 hPa 0,0 l/m 0 min 0 min 0 W/m 22,5 km/h (4 Bft) 93,62 %
02.10.2021 23:16 16,4 C 16,1 C 13,4 C 89 % 999,0 hPa 0,0 l/m 0 min 0 min 0 W/m 19,3 km/h (3 Bft) 100,00 %
02.10.2021 23:18 16,4 C 16,1 C 13,4 C 88 % 999,0 hPa 0,0 l/m 0 min 2 min 0 W/m 16,1 km/h (3 Bft) 97,87 %
02.10.2021 23:20 16,5 C 16,1 C 13,4 C 88 % 999,1 hPa 0,0 l/m 0 min 2 min 0 W/m 19,3 km/h (3 Bft) 95,74 %
02.10.2021 23:22 16,5 C 16,1 C 13,4 C 88 % 999,0 hPa 0,0 l/m 0 min 2 min 0 W/m 12,9 km/h (3 Bft) 97,87 %
02.10.2021 23:24 16,5 C 15,6 C 13,4 C 88 % 999,1 hPa 0,0 l/m 0 min 2 min 0 W/m 19,3 km/h (3 Bft) 95,74 %
02.10.2021 23:26 16,5 C 15,6 C 13,4 C 88 % 999,0 hPa 0,0 l/m 0 min 2 min 0 W/m 22,5 km/h (4 Bft) 97,87 %
02.10.2021 23:28 16,6 C 15,6 C 13,4 C 88 % 999,0 hPa 0,0 l/m 0 min 2 min 0 W/m 12,9 km/h (3 Bft) 97,83 %
02.10.2021 23:30 16,6 C 15,6 C 13,4 C 88 % 999,0 hPa 0,0 l/m 0 min 0 min 0 W/m 25,7 km/h (4 Bft) 97,87 %
02.10.2021 23:32 16,6 C 15,6 C 13,4 C 88 % 999,0 hPa 0,0 l/m 0 min 0 min 0 W/m 16,1 km/h (3 Bft) 97,92 %
02.10.2021 23:34 16,6 C 15,6 C 13,4 C 88 % 998,9 hPa 0,0 l/m 0 min 2 min 0 W/m 16,1 km/h (3 Bft) 97,87 %
02.10.2021 23:36 16,7 C 16,1 C 13,4 C 88 % 998,8 hPa 0,0 l/m 0 min 0 min 0 W/m 29,0 km/h (5 Bft) 97,87 %
02.10.2021 23:38 16,7 C 16,1 C 13,4 C 88 % 998,7 hPa 0,0 l/m 0 min 0 min 0 W/m 12,9 km/h (3 Bft) 97,87 %
02.10.2021 23:40 16,7 C 16,1 C 13,4 C 88 % 998,8 hPa 0,0 l/m 0 min 0 min 0 W/m 16,1 km/h (3 Bft) 97,83 %
02.10.2021 23:42 16,8 C 16,1 C 13,4 C 88 % 998,7 hPa 0,0 l/m 0 min 0 min 0 W/m 16,1 km/h (3 Bft) 97,87 %
02.10.2021 23:44 16,8 C 16,1 C 13,4 C 88 % 998,7 hPa 0,0 l/m 0 min 0 min 0 W/m 25,7 km/h (4 Bft) 97,87 %
02.10.2021 23:46 16,8 C 16,1 C 13,4 C 88 % 998,6 hPa 0,0 l/m 0 min 2 min 0 W/m 16,1 km/h (3 Bft) 100,00 %
02.10.2021 23:48 16,8 C 16,1 C 13,4 C 87 % 998,6 hPa 0,0 l/m 0 min 0 min 0 W/m 16,1 km/h (3 Bft) 100,00 %
02.10.2021 23:50 16,8 C 16,1 C 13,4 C 87 % 998,6 hPa 0,0 l/m 0 min 0 min 0 W/m 12,9 km/h (3 Bft) 97,83 %
02.10.2021 23:52 16,9 C 16,1 C 13,4 C 87 % 998,6 hPa 0,0 l/m 0 min 0 min 0 W/m 19,3 km/h (3 Bft) 100,00 %
02.10.2021 23:54 16,9 C 16,1 C 13,4 C 87 % 998,6 hPa 0,0 l/m 0 min 0 min 0 W/m 16,1 km/h (3 Bft) 97,87 %
02.10.2021 23:56 16,9 C 16,1 C 13,4 C 87 % 998,6 hPa 0,0 l/m 0 min 0 min 0 W/m 19,3 km/h (3 Bft) 97,87 %
02.10.2021 23:58 16,9 C 16,1 C 13,4 C 87 % 998,6 hPa 0,0 l/m 0 min 0 min 0 W/m 12,9 km/h (3 Bft) 100,00 %
_ Min-Zeit 08:14 07:52 00:00 16:12 23:46 - - - - 07:42 06:32
Minimum _ 12,2 C 11,1 C 10,0 C 68 % 998,6 hPa - - - - 0,0 km/h (0 Bft) 53,19 %
_ Max-Zeit 15:30 13:44 13:44 08:56 00:00 00:07 10:28 00:22 13:46 16:10 00:02
Maximum _ 18,2 C 18,9 C 16,7 C 96 % 1014,0 hPa 0,2 l/m 2 min 2 min 636 W/m 38,6 km/h
SW (5 Bft)
100,00 %
Durchschnitt _ 14,9 C 14,4 C 12,8 C 88 % 1008,7 hPa #2,4 l/m #58 min. #4:30 h 135 W/m 12,7 km/h (3 Bft) 97,52 %
© 2021 W. Hausmann